Observation data for Clyde on 09/20/2020      Previous  Date  Next       Current Mesonet Observations  Soil Data  Daily Summary Page  Observations in Plain Language
KCL2 200500Z 09004KT 16/13 A3018 RMK A01 T01630134  RH  083%=      5-min Rain = 0
KCL2 200501Z 10005KT 16/13 A3018 RMK A01 T01620134  RH  083%=      5-min Rain = 0
KCL2 200502Z 09005KT 16/13 A3018 RMK A01 T01630134  RH  083%=      5-min Rain = 0
KCL2 200503Z 10005KT 16/13 A3018 RMK A01 T01620134  RH  083%=      5-min Rain = 0
KCL2 200504Z 10005KT 16/13 A3018 RMK A01 T01620134  RH  083%=      5-min Rain = 0
KCL2 200505Z 10005KT 16/13 A3018 RMK A01 T01620134  RH  083%=      5-min Rain = 0
KCL2 200506Z 10005KT 16/13 A3018 RMK A01 T01620134  RH  083%=      5-min Rain = 0
KCL2 200507Z 10005KT 16/13 A3018 RMK A01 T01620134  RH  084%=      5-min Rain = 0
KCL2 200508Z 10005KT 16/13 A3018 RMK A01 T01620134  RH  084%=      5-min Rain = 0
KCL2 200509Z 10005KT 16/13 A3018 RMK A01 T01620134  RH  083%=      5-min Rain = 0
KCL2 200510Z 10005KT 16/13 A3018 RMK A01 T01620134  RH  083%=      5-min Rain = 0
KCL2 200511Z 10005KT 16/13 A3018 RMK A01 T01620134  RH  084%=      5-min Rain = 0
KCL2 200512Z 10005KT 16/13 A3018 RMK A01 T01620134  RH  084%=      5-min Rain = 0
KCL2 200513Z 10005KT 16/13 A3018 RMK A01 T01620134  RH  084%=      5-min Rain = 0
KCL2 200514Z 10005KT 16/14 A3018 RMK A01 T01620135  RH  084%=      5-min Rain = 0
KCL2 200515Z 10005KT 16/14 A3018 RMK A01 T01620135  RH  084%=      5-min Rain = 0
KCL2 200516Z 10004KT 16/14 A3018 RMK A01 T01630135  RH  084%=      5-min Rain = 0
KCL2 200517Z 10005KT 16/14 A3018 RMK A01 T01630135  RH  084%=      5-min Rain = 0
KCL2 200518Z 10005KT 16/14 A3018 RMK A01 T01630135  RH  083%=      5-min Rain = 0
KCL2 200519Z 10004KT 16/14 A3018 RMK A01 T01640135  RH  083%=      5-min Rain = 0
KCL2 200520Z 10005KT 16/14 A3018 RMK A01 T01640135  RH  083%=      5-min Rain = 0
KCL2 200521Z 10004KT 16/14 A3018 RMK A01 T01640135  RH  083%=      5-min Rain = 0
KCL2 200522Z 10005KT 16/14 A3018 RMK A01 T01640136  RH  083%=      5-min Rain = 0
KCL2 200523Z 10005KT 17/14 A3018 RMK A01 T01650135  RH  083%=      5-min Rain = 0
KCL2 200524Z 11004KT 17/14 A3018 RMK A01 T01650135  RH  083%=      5-min Rain = 0
KCL2 200525Z 11004KT 17/14 A3018 RMK A01 T01650135  RH  083%=      5-min Rain = 0
KCL2 200526Z 10005KT 17/14 A3018 RMK A01 T01650135  RH  083%=      5-min Rain = 0
KCL2 200527Z 11005KT 17/14 A3018 RMK A01 T01650136  RH  083%=      5-min Rain = 0
KCL2 200528Z 10004KT 17/14 A3018 RMK A01 T01650136  RH  083%=      5-min Rain = 0
KCL2 200529Z 10005KT 17/14 A3018 RMK A01 T01660136  RH  083%=      5-min Rain = 0
KCL2 200530Z 10004KT 17/14 A3018 RMK A01 T01660136  RH  082%=      5-min Rain = 0
KCL2 200531Z 10005KT 17/14 A3018 RMK A01 T01660136  RH  082%=      5-min Rain = 0
KCL2 200532Z 10004KT 17/14 A3018 RMK A01 T01660136  RH  082%=      5-min Rain = 0
KCL2 200533Z 11005KT 17/14 A3018 RMK A01 T01670136  RH  082%=      5-min Rain = 0
KCL2 200534Z 11004KT 17/14 A3018 RMK A01 T01670136  RH  082%=      5-min Rain = 0
KCL2 200535Z 11005KT 17/14 A3018 RMK A01 T01660136  RH  082%=      5-min Rain = 0
KCL2 200536Z 11004KT 17/14 A3018 RMK A01 T01660136  RH  082%=      5-min Rain = 0
KCL2 200537Z 11004KT 17/14 A3018 RMK A01 T01650135  RH  083%=      5-min Rain = 0
KCL2 200538Z 11005KT 17/14 A3018 RMK A01 T01650135  RH  083%=      5-min Rain = 0
KCL2 200539Z 11005KT 16/14 A3018 RMK A01 T01640136  RH  083%=      5-min Rain = 0
KCL2 200540Z 11005KT 16/14 A3018 RMK A01 T01630135  RH  083%=      5-min Rain = 0
KCL2 200541Z 11005KT 16/14 A3018 RMK A01 T01630135  RH  084%=      5-min Rain = 0
KCL2 200542Z 12005KT 16/14 A3018 RMK A01 T01630135  RH  084%=      5-min Rain = 0
KCL2 200543Z 12005KT 16/14 A3018 RMK A01 T01620135  RH  084%=      5-min Rain = 0
KCL2 200544Z 11005KT 16/14 A3018 RMK A01 T01620135  RH  084%=      5-min Rain = 0
KCL2 200545Z 12006KT 16/14 A3018 RMK A01 T01620135  RH  084%=      5-min Rain = 0
KCL2 200546Z 11006KT 16/14 A3018 RMK A01 T01620136  RH  084%=      5-min Rain = 0
KCL2 200547Z 11006KT 16/14 A3018 RMK A01 T01610135  RH  084%=      5-min Rain = 0
KCL2 200548Z 11005KT 16/14 A3018 RMK A01 T01610135  RH  085%=      5-min Rain = 0
KCL2 200549Z 10006KT 16/14 A3018 RMK A01 T01620135  RH  084%=      5-min Rain = 0
KCL2 200550Z 11006KT 16/14 A3018 RMK A01 T01620135  RH  084%=      5-min Rain = 0
KCL2 200551Z 11005KT 16/14 A3018 RMK A01 T01630135  RH  084%=      5-min Rain = 0
KCL2 200552Z 10005KT 16/14 A3018 RMK A01 T01630136  RH  084%=      5-min Rain = 0
KCL2 200553Z 10005KT 16/14 A3018 RMK A01 T01630135  RH  084%=      5-min Rain = 0
KCL2 200554Z 10005KT 16/14 A3018 RMK A01 T01630135  RH  084%=      5-min Rain = 0
KCL2 200555Z 10005KT 16/14 A3018 RMK A01 T01640136  RH  083%=      5-min Rain = 0
KCL2 200556Z 10004KT 16/14 A3018 RMK A01 T01640135  RH  083%=      5-min Rain = 0
KCL2 200557Z 10005KT 16/14 A3018 RMK A01 T01640135  RH  083%=      5-min Rain = 0
KCL2 200558Z 11005KT 16/14 A3018 RMK A01 T01640135  RH  083%=      5-min Rain = 0
KCL2 200559Z 11005KT 16/14 A3018 RMK A01 T01630135  RH  083%=      5-min Rain = 0
KCL2 200600Z 11005KT 16/14 A3018 RMK A01 T01630135  RH  083%=      5-min Rain = 0
KCL2 200601Z 11005KT 16/14 A3018 RMK A01 T01630135  RH  084%=      5-min Rain = 0
KCL2 200602Z 11005KT 16/14 A3018 RMK A01 T01620135  RH  084%=      5-min Rain = 0
KCL2 200603Z 11005KT 16/13 A3018 RMK A01 T01610134  RH  084%=      5-min Rain = 0
KCL2 200604Z 11005KT 16/13 A3018 RMK A01 T01610134  RH  084%=      5-min Rain = 0
KCL2 200605Z 11005KT 16/14 A3018 RMK A01 T01610135  RH  084%=      5-min Rain = 0
KCL2 200606Z 11004KT 16/13 A3018 RMK A01 T01610134  RH  084%=      5-min Rain = 0
KCL2 200607Z 11005KT 16/13 A3018 RMK A01 T01610134  RH  084%=      5-min Rain = 0
KCL2 200608Z 11005KT 16/13 A3018 RMK A01 T01600134  RH  085%=      5-min Rain = 0
KCL2 200609Z 11004KT 16/13 A3018 RMK A01 T01600134  RH  085%=      5-min Rain = 0
KCL2 200610Z 11004KT 16/13 A3018 RMK A01 T01600134  RH  085%=      5-min Rain = 0
KCL2 200611Z 11004KT 16/13 A3018 RMK A01 T01600134  RH  085%=      5-min Rain = 0
KCL2 200612Z 11004KT 16/13 A3018 RMK A01 T01600134  RH  085%=      5-min Rain = 0
KCL2 200613Z 11004KT 16/13 A3018 RMK A01 T01600134  RH  085%=      5-min Rain = 0
KCL2 200614Z 11004KT 16/13 A3018 RMK A01 T01590134  RH  085%=      5-min Rain = 0
KCL2 200615Z 11004KT 16/13 A3018 RMK A01 T01590134  RH  085%=      5-min Rain = 0
KCL2 200616Z 11004KT 16/13 A3018 RMK A01 T01590134  RH  085%=      5-min Rain = 0
KCL2 200617Z 11004KT 16/13 A3018 RMK A01 T01590134  RH  085%=      5-min Rain = 0
KCL2 200618Z 11004KT 16/13 A3018 RMK A01 T01580134  RH  085%=      5-min Rain = 0
KCL2 200619Z 11004KT 16/13 A3018 RMK A01 T01590134  RH  085%=      5-min Rain = 0
KCL2 200620Z 11004KT 16/13 A3018 RMK A01 T01580134  RH  085%=      5-min Rain = 0
KCL2 200621Z 11004KT 16/13 A3018 RMK A01 T01580134  RH  085%=      5-min Rain = 0
KCL2 200622Z 11004KT 16/13 A3018 RMK A01 T01580134  RH  085%=      5-min Rain = 0
KCL2 200623Z 11004KT 16/13 A3018 RMK A01 T01570133  RH  086%=      5-min Rain = 0
KCL2 200624Z 11004KT 16/13 A3018 RMK A01 T01570134  RH  086%=      5-min Rain = 0
KCL2 200625Z 11004KT 16/13 A3018 RMK A01 T01570134  RH  086%=      5-min Rain = 0
KCL2 200626Z 11004KT 16/13 A3018 RMK A01 T01570134  RH  086%=      5-min Rain = 0
KCL2 200627Z 11004KT 16/13 A3018 RMK A01 T01570133  RH  086%=      5-min Rain = 0
KCL2 200628Z 11004KT 16/13 A3018 RMK A01 T01570133  RH  086%=      5-min Rain = 0
KCL2 200629Z 11004KT 16/13 A3018 RMK A01 T01570133  RH  086%=      5-min Rain = 0
KCL2 200630Z 11004KT 16/13 A3018 RMK A01 T01560133  RH  086%=      5-min Rain = 0
KCL2 200631Z 11005KT 16/13 A3018 RMK A01 T01560133  RH  086%=      5-min Rain = 0
KCL2 200632Z 11004KT 16/13 A3018 RMK A01 T01560133  RH  087%=      5-min Rain = 0
KCL2 200633Z 11004KT 16/13 A3018 RMK A01 T01560134  RH  087%=      5-min Rain = 0
KCL2 200634Z 11004KT 16/13 A3018 RMK A01 T01560133  RH  087%=      5-min Rain = 0
KCL2 200635Z 11004KT 16/13 A3018 RMK A01 T01560134  RH  087%=      5-min Rain = 0
KCL2 200636Z 10004KT 16/13 A3018 RMK A01 T01560134  RH  087%=      5-min Rain = 0
KCL2 200637Z 10004KT 16/13 A3017 RMK A01 T01550133  RH  087%=      5-min Rain = 0
KCL2 200638Z 10004KT 16/13 A3017 RMK A01 T01550133  RH  087%=      5-min Rain = 0
KCL2 200639Z 10004KT 16/13 A3017 RMK A01 T01550134  RH  087%=      5-min Rain = 0
KCL2 200640Z 10004KT 16/13 A3017 RMK A01 T01550134  RH  087%=      5-min Rain = 0
KCL2 200641Z 10004KT 16/13 A3017 RMK A01 T01550133  RH  087%=      5-min Rain = 0
KCL2 200642Z 10004KT 16/13 A3017 RMK A01 T01550133  RH  087%=      5-min Rain = 0
KCL2 200643Z 10004KT 15/13 A3017 RMK A01 T01540133  RH  087%=      5-min Rain = 0
KCL2 200644Z 10004KT 15/13 A3017 RMK A01 T01540133  RH  087%=      5-min Rain = 0
KCL2 200645Z 10004KT 15/13 A3017 RMK A01 T01540133  RH  087%=      5-min Rain = 0
KCL2 200646Z 10005KT 15/13 A3017 RMK A01 T01530133  RH  087%=      5-min Rain = 0
KCL2 200647Z 10004KT 15/13 A3017 RMK A01 T01530133  RH  088%=      5-min Rain = 0
KCL2 200648Z 11005KT 15/13 A3017 RMK A01 T01530133  RH  088%=      5-min Rain = 0
KCL2 200649Z 11005KT 15/13 A3017 RMK A01 T01530132  RH  087%=      5-min Rain = 0
KCL2 200650Z 11005KT 15/13 A3017 RMK A01 T01530132  RH  087%=      5-min Rain = 0
KCL2 200651Z 11005KT 15/13 A3017 RMK A01 T01520131  RH  087%=      5-min Rain = 0
KCL2 200652Z 11005KT 15/13 A3017 RMK A01 T01510131  RH  087%=      5-min Rain = 0
KCL2 200653Z 12005KT 15/13 A3017 RMK A01 T01510131  RH  088%=      5-min Rain = 0
KCL2 200654Z 11005KT 15/13 A3017 RMK A01 T01500131  RH  088%=      5-min Rain = 0
KCL2 200655Z 11005KT 15/13 A3017 RMK A01 T01500131  RH  089%=      5-min Rain = 0
KCL2 200656Z 12005KT 15/13 A3017 RMK A01 T01500131  RH  089%=      5-min Rain = 0
KCL2 200657Z 11005KT 15/13 A3017 RMK A01 T01500132  RH  089%=      5-min Rain = 0
KCL2 200658Z 11005KT 15/13 A3017 RMK A01 T01510132  RH  088%=      5-min Rain = 0
KCL2 200659Z 11005KT 15/13 A3017 RMK A01 T01510132  RH  088%=      5-min Rain = 0
KCL2 200700Z 11005KT 15/13 A3017 RMK A01 T01510132  RH  088%=      5-min Rain = 0
KCL2 200701Z 11005KT 15/13 A3017 RMK A01 T01510132  RH  088%=      5-min Rain = 0
KCL2 200702Z 11005KT 15/13 A3017 RMK A01 T01520132  RH  088%=      5-min Rain = 0
KCL2 200703Z 11005KT 15/13 A3017 RMK A01 T01520132  RH  088%=      5-min Rain = 0
KCL2 200704Z 11005KT 15/13 A3017 RMK A01 T01520132  RH  088%=      5-min Rain = 0
KCL2 200705Z 11005KT 15/13 A3017 RMK A01 T01520132  RH  088%=      5-min Rain = 0
KCL2 200706Z 11005KT 15/13 A3017 RMK A01 T01520132  RH  088%=      5-min Rain = 0
KCL2 200707Z 11005KT 15/13 A3017 RMK A01 T01530132  RH  088%=      5-min Rain = 0
KCL2 200708Z 11005KT 15/13 A3017 RMK A01 T01520132  RH  088%=      5-min Rain = 0
KCL2 200709Z 11005KT 15/13 A3017 RMK A01 T01520132  RH  088%=      5-min Rain = 0
KCL2 200710Z 11005KT 15/13 A3017 RMK A01 T01520133  RH  088%=      5-min Rain = 0
KCL2 200711Z 11005KT 15/13 A3017 RMK A01 T01530133  RH  088%=      5-min Rain = 0
KCL2 200712Z 11006KT 15/13 A3017 RMK A01 T01520132  RH  088%=      5-min Rain = 0
KCL2 200713Z 11006KT 15/13 A3017 RMK A01 T01520132  RH  088%=      5-min Rain = 0
KCL2 200714Z 11006KT 15/13 A3017 RMK A01 T01520132  RH  088%=      5-min Rain = 0
KCL2 200715Z 11006KT 15/13 A3017 RMK A01 T01520132  RH  088%=      5-min Rain = 0
KCL2 200716Z 11006KT 15/13 A3017 RMK A01 T01520132  RH  088%=      5-min Rain = 0
KCL2 200717Z 11006KT 15/13 A3017 RMK A01 T01520132  RH  088%=      5-min Rain = 0
KCL2 200718Z 11006KT 15/13 A3017 RMK A01 T01520131  RH  088%=      5-min Rain = 0
KCL2 200719Z 11006KT 15/13 A3017 RMK A01 T01520132  RH  088%=      5-min Rain = 0
KCL2 200720Z 11006KT 15/13 A3017 RMK A01 T01520131  RH  087%=      5-min Rain = 0
KCL2 200721Z 11006KT 15/13 A3017 RMK A01 T01520131  RH  087%=      5-min Rain = 0
KCL2 200722Z 11006KT 15/13 A3017 RMK A01 T01510131  RH  088%=      5-min Rain = 0
KCL2 200723Z 11006KT 15/13 A3017 RMK A01 T01520131  RH  088%=      5-min Rain = 0
KCL2 200724Z 11006KT 15/13 A3017 RMK A01 T01510131  RH  088%=      5-min Rain = 0
KCL2 200725Z 11006KT 15/13 A3017 RMK A01 T01510131  RH  088%=      5-min Rain = 0
KCL2 200726Z 11006KT 15/13 A3017 RMK A01 T01510131  RH  088%=      5-min Rain = 0
KCL2 200727Z 12006KT 15/13 A3017 RMK A01 T01520131  RH  088%=      5-min Rain = 0
KCL2 200728Z 12006KT 15/13 A3017 RMK A01 T01510131  RH  088%=      5-min Rain = 0
KCL2 200729Z 11006KT 15/13 A3017 RMK A01 T01520131  RH  088%=      5-min Rain = 0
KCL2 200730Z 11006KT 15/13 A3017 RMK A01 T01510131  RH  088%=      5-min Rain = 0
KCL2 200731Z 11006KT 15/13 A3017 RMK A01 T01520131  RH  088%=      5-min Rain = 0
KCL2 200732Z 11005KT 15/13 A3017 RMK A01 T01510131  RH  087%=      5-min Rain = 0
KCL2 200733Z 11005KT 15/13 A3017 RMK A01 T01510130  RH  087%=      5-min Rain = 0
KCL2 200734Z 11005KT 15/13 A3017 RMK A01 T01520131  RH  087%=      5-min Rain = 0
KCL2 200735Z 11005KT 15/13 A3017 RMK A01 T01520131  RH  087%=      5-min Rain = 0
KCL2 200736Z 11005KT 15/13 A3017 RMK A01 T01520131  RH  087%=      5-min Rain = 0
KCL2 200737Z 11006KT 15/13 A3017 RMK A01 T01530131  RH  087%=      5-min Rain = 0
KCL2 200738Z 11006KT 15/13 A3017 RMK A01 T01530131  RH  087%=      5-min Rain = 0
KCL2 200739Z 11006KT 15/13 A3017 RMK A01 T01530130  RH  086%=      5-min Rain = 0
KCL2 200740Z 11006KT 15/13 A3017 RMK A01 T01530131  RH  086%=      5-min Rain = 0
KCL2 200741Z 11006KT 15/13 A3017 RMK A01 T01530131  RH  086%=      5-min Rain = 0
KCL2 200742Z 11006KT 15/13 A3017 RMK A01 T01530131  RH  086%=      5-min Rain = 0
KCL2 200743Z 11006KT 15/13 A3017 RMK A01 T01530131  RH  086%=      5-min Rain = 0
KCL2 200744Z 11006KT 15/13 A3017 RMK A01 T01530131  RH  086%=      5-min Rain = 0
KCL2 200745Z 11006KT 15/13 A3017 RMK A01 T01530131  RH  087%=      5-min Rain = 0
KCL2 200746Z 11006KT 15/13 A3017 RMK A01 T01530131  RH  087%=      5-min Rain = 0
KCL2 200747Z 11006KT 15/13 A3017 RMK A01 T01530131  RH  087%=      5-min Rain = 0
KCL2 200748Z 11006KT 15/13 A3017 RMK A01 T01520130  RH  087%=      5-min Rain = 0
KCL2 200749Z 11006KT 15/13 A3017 RMK A01 T01520130  RH  087%=      5-min Rain = 0
KCL2 200750Z 11006KT 15/13 A3017 RMK A01 T01520130  RH  087%=      5-min Rain = 0
KCL2 200751Z 12006KT 15/13 A3017 RMK A01 T01510130  RH  087%=      5-min Rain = 0
KCL2 200752Z 11006KT 15/13 A3017 RMK A01 T01510130  RH  087%=      5-min Rain = 0
KCL2 200753Z 11006KT 15/13 A3017 RMK A01 T01510130  RH  087%=      5-min Rain = 0
KCL2 200754Z 11006KT 15/13 A3017 RMK A01 T01500129  RH  087%=      5-min Rain = 0
KCL2 200755Z 11006KT 15/13 A3017 RMK A01 T01500130  RH  088%=      5-min Rain = 0
KCL2 200756Z 11006KT 15/13 A3017 RMK A01 T01500130  RH  088%=      5-min Rain = 0
KCL2 200757Z 11006KT 15/13 A3017 RMK A01 T01500130  RH  088%=      5-min Rain = 0
KCL2 200758Z 12006KT 15/13 A3017 RMK A01 T01500130  RH  088%=      5-min Rain = 0
KCL2 200759Z 11006KT 15/13 A3017 RMK A01 T01500130  RH  088%=      5-min Rain = 0
KCL2 200800Z 12005KT 15/13 A3017 RMK A01 T01500130  RH  088%=      5-min Rain = 0
KCL2 200801Z 11006KT 15/13 A3017 RMK A01 T01500129  RH  088%=      5-min Rain = 0
KCL2 200802Z 11005KT 15/13 A3017 RMK A01 T01500130  RH  088%=      5-min Rain = 0
KCL2 200803Z 11005KT 15/13 A3017 RMK A01 T01490129  RH  088%=      5-min Rain = 0
KCL2 200804Z 11005KT 15/13 A3017 RMK A01 T01490129  RH  088%=      5-min Rain = 0
KCL2 200805Z 11005KT 15/13 A3017 RMK A01 T01490129  RH  088%=      5-min Rain = 0
KCL2 200806Z 11005KT 15/13 A3017 RMK A01 T01490129  RH  088%=      5-min Rain = 0
KCL2 200807Z 10005KT 15/13 A3017 RMK A01 T01490129  RH  088%=      5-min Rain = 0
KCL2 200808Z 11005KT 15/13 A3017 RMK A01 T01490129  RH  088%=      5-min Rain = 0
KCL2 200809Z 11005KT 15/13 A3017 RMK A01 T01490129  RH  088%=      5-min Rain = 0
KCL2 200810Z 11005KT 15/13 A3017 RMK A01 T01490129  RH  088%=      5-min Rain = 0
KCL2 200811Z 11005KT 15/13 A3017 RMK A01 T01490129  RH  088%=      5-min Rain = 0
KCL2 200812Z 11005KT 15/13 A3017 RMK A01 T01490129  RH  088%=      5-min Rain = 0
KCL2 200813Z 11005KT 15/13 A3017 RMK A01 T01490129  RH  088%=      5-min Rain = 0
KCL2 200814Z 11005KT 15/13 A3017 RMK A01 T01490129  RH  088%=      5-min Rain = 0
KCL2 200815Z 11005KT 15/13 A3017 RMK A01 T01490129  RH  088%=      5-min Rain = 0
KCL2 200816Z 11005KT 15/13 A3017 RMK A01 T01490129  RH  088%=      5-min Rain = 0
KCL2 200817Z 11005KT 15/13 A3017 RMK A01 T01490129  RH  088%=      5-min Rain = 0
KCL2 200818Z 11005KT 15/13 A3017 RMK A01 T01490129  RH  088%=      5-min Rain = 0
KCL2 200819Z 11006KT 15/13 A3017 RMK A01 T01490128  RH  087%=      5-min Rain = 0
KCL2 200820Z 11005KT 15/13 A3017 RMK A01 T01490128  RH  087%=      5-min Rain = 0
KCL2 200821Z 11005KT 15/13 A3017 RMK A01 T01490128  RH  088%=      5-min Rain = 0
KCL2 200822Z 11005KT 15/13 A3017 RMK A01 T01480128  RH  088%=      5-min Rain = 0
KCL2 200823Z 12005KT 15/13 A3017 RMK A01 T01470128  RH  088%=      5-min Rain = 0
KCL2 200824Z 12005KT 15/13 A3017 RMK A01 T01470128  RH  088%=      5-min Rain = 0
KCL2 200825Z 11005KT 15/13 A3017 RMK A01 T01470128  RH  089%=      5-min Rain = 0
KCL2 200826Z 11005KT 15/13 A3017 RMK A01 T01470128  RH  089%=      5-min Rain = 0
KCL2 200827Z 11005KT 15/13 A3017 RMK A01 T01460128  RH  089%=      5-min Rain = 0
KCL2 200828Z 12005KT 15/13 A3017 RMK A01 T01460128  RH  089%=      5-min Rain = 0
KCL2 200829Z 12005KT 15/13 A3017 RMK A01 T01460128  RH  089%=      5-min Rain = 0
KCL2 200830Z 12005KT 15/13 A3017 RMK A01 T01460127  RH  089%=      5-min Rain = 0
KCL2 200831Z 12005KT 15/13 A3017 RMK A01 T01450128  RH  089%=      5-min Rain = 0
KCL2 200832Z 12005KT 15/13 A3017 RMK A01 T01450128  RH  089%=      5-min Rain = 0
KCL2 200833Z 12005KT 15/13 A3017 RMK A01 T01450127  RH  089%=      5-min Rain = 0
KCL2 200834Z 12005KT 15/13 A3017 RMK A01 T01450128  RH  090%=      5-min Rain = 0
KCL2 200835Z 12005KT 15/13 A3017 RMK A01 T01450128  RH  090%=      5-min Rain = 0
KCL2 200836Z 12005KT 15/13 A3017 RMK A01 T01450128  RH  090%=      5-min Rain = 0
KCL2 200837Z 12005KT 15/13 A3017 RMK A01 T01450128  RH  090%=      5-min Rain = 0
KCL2 200838Z 12005KT 15/13 A3017 RMK A01 T01450128  RH  090%=      5-min Rain = 0
KCL2 200839Z 12005KT 15/13 A3017 RMK A01 T01450128  RH  090%=      5-min Rain = 0
KCL2 200840Z 12005KT 15/13 A3017 RMK A01 T01450128  RH  090%=      5-min Rain = 0
KCL2 200841Z 12005KT 15/13 A3017 RMK A01 T01450128  RH  090%=      5-min Rain = 0
KCL2 200842Z 12005KT 15/13 A3017 RMK A01 T01450128  RH  090%=      5-min Rain = 0
KCL2 200843Z 12005KT 15/13 A3017 RMK A01 T01450128  RH  090%=      5-min Rain = 0
KCL2 200844Z 12005KT 15/13 A3017 RMK A01 T01450128  RH  090%=      5-min Rain = 0
KCL2 200845Z 12005KT 14/13 A3017 RMK A01 T01440128  RH  090%=      5-min Rain = 0
KCL2 200846Z 12005KT 14/13 A3017 RMK A01 T01440128  RH  090%=      5-min Rain = 0
KCL2 200847Z 12005KT 14/13 A3017 RMK A01 T01440128  RH  090%=      5-min Rain = 0
KCL2 200848Z 12005KT 14/13 A3017 RMK A01 T01440127  RH  090%=      5-min Rain = 0
KCL2 200849Z 12005KT 14/13 A3017 RMK A01 T01440128  RH  090%=      5-min Rain = 0
KCL2 200850Z 12005KT 14/13 A3017 RMK A01 T01440127  RH  090%=      5-min Rain = 0
KCL2 200851Z 12005KT 14/13 A3017 RMK A01 T01440127  RH  090%=      5-min Rain = 0
KCL2 200852Z 12005KT 14/13 A3017 RMK A01 T01440127  RH  090%=      5-min Rain = 0
KCL2 200853Z 12005KT 14/13 A3017 RMK A01 T01440127  RH  090%=      5-min Rain = 0
KCL2 200854Z 12005KT 14/13 A3017 RMK A01 T01440127  RH  090%=      5-min Rain = 0
KCL2 200855Z 12006KT 14/13 A3017 RMK A01 T01440127  RH  090%=      5-min Rain = 0
KCL2 200856Z 12006KT 14/13 A3017 RMK A01 T01440127  RH  090%=      5-min Rain = 0
KCL2 200857Z 12006KT 14/13 A3017 RMK A01 T01430127  RH  090%=      5-min Rain = 0
KCL2 200858Z 12006KT 14/13 A3017 RMK A01 T01430127  RH  090%=      5-min Rain = 0
KCL2 200859Z 12006KT 14/13 A3017 RMK A01 T01430127  RH  090%=      5-min Rain = 0
KCL2 200900Z 12006KT 14/13 A3017 RMK A01 T01430127  RH  090%=      5-min Rain = 0
KCL2 200901Z 12006KT 14/13 A3017 RMK A01 T01430127  RH  090%=      5-min Rain = 0
KCL2 200902Z 12006KT 14/13 A3017 RMK A01 T01430127  RH  090%=      5-min Rain = 0
KCL2 200903Z 12006KT 14/13 A3017 RMK A01 T01430127  RH  090%=      5-min Rain = 0
KCL2 200904Z 12006KT 14/13 A3017 RMK A01 T01430127  RH  090%=      5-min Rain = 0
KCL2 200905Z 12006KT 14/13 A3017 RMK A01 T01440127  RH  089%=      5-min Rain = 0
KCL2 200906Z 12006KT 14/13 A3017 RMK A01 T01440126  RH  089%=      5-min Rain = 0
KCL2 200907Z 12006KT 14/13 A3017 RMK A01 T01440126  RH  089%=      5-min Rain = 0
KCL2 200908Z 12006KT 15/13 A3017 RMK A01 T01450126  RH  089%=      5-min Rain = 0
KCL2 200909Z 12006KT 15/13 A3017 RMK A01 T01450126  RH  089%=      5-min Rain = 0
KCL2 200910Z 12006KT 15/13 A3017 RMK A01 T01450126  RH  088%=      5-min Rain = 0
KCL2 200911Z 12007KT 15/13 A3017 RMK A01 T01450126  RH  088%=      5-min Rain = 0
KCL2 200912Z 12007KT 15/13 A3017 RMK A01 T01450126  RH  088%=      5-min Rain = 0
KCL2 200913Z 12007KT 15/13 A3017 RMK A01 T01450125  RH  088%=      5-min Rain = 0
KCL2 200914Z 12006KT 15/13 A3017 RMK A01 T01450125  RH  088%=      5-min Rain = 0
KCL2 200915Z 12007KT 15/13 A3017 RMK A01 T01450125  RH  088%=      5-min Rain = 0
KCL2 200916Z 12007KT 15/13 A3016 RMK A01 T01450125  RH  088%=      5-min Rain = 0
KCL2 200917Z 12007KT 15/13 A3017 RMK A01 T01450125  RH  088%=      5-min Rain = 0
KCL2 200918Z 12007KT 15/13 A3017 RMK A01 T01450125  RH  088%=      5-min Rain = 0
KCL2 200919Z 12007KT 15/13 A3017 RMK A01 T01450125  RH  088%=      5-min Rain = 0
KCL2 200920Z 11007KT 15/13 A3016 RMK A01 T01450125  RH  088%=      5-min Rain = 0
KCL2 200921Z 12007KT 15/13 A3017 RMK A01 T01450125  RH  087%=      5-min Rain = 0
KCL2 200922Z 12007KT 15/13 A3017 RMK A01 T01460125  RH  087%=      5-min Rain = 0
KCL2 200923Z 12007KT 15/13 A3017 RMK A01 T01460125  RH  087%=      5-min Rain = 0
KCL2 200924Z 12007KT 15/12 A3017 RMK A01 T01460124  RH  087%=      5-min Rain = 0
KCL2 200925Z 12008KT 15/12 A3017 RMK A01 T01460124  RH  087%=      5-min Rain = 0
KCL2 200926Z 12007KT 15/12 A3017 RMK A01 T01460124  RH  087%=      5-min Rain = 0
KCL2 200927Z 12008KT 15/12 A3017 RMK A01 T01460124  RH  087%=      5-min Rain = 0
KCL2 200928Z 12008KT 15/12 A3017 RMK A01 T01460124  RH  086%=      5-min Rain = 0
KCL2 200929Z 12008KT 15/12 A3017 RMK A01 T01460124  RH  086%=      5-min Rain = 0
KCL2 200930Z 12007KT 15/12 A3017 RMK A01 T01470124  RH  086%=      5-min Rain = 0
KCL2 200931Z 12008KT 15/12 A3017 RMK A01 T01470124  RH  086%=      5-min Rain = 0
KCL2 200932Z 12008KT 15/12 A3017 RMK A01 T01470124  RH  086%=      5-min Rain = 0
KCL2 200933Z 12008KT 15/12 A3017 RMK A01 T01470124  RH  086%=      5-min Rain = 0
KCL2 200934Z 12007KT 15/12 A3017 RMK A01 T01470123  RH  086%=      5-min Rain = 0
KCL2 200935Z 12008KT 15/12 A3017 RMK A01 T01470123  RH  085%=      5-min Rain = 0
KCL2 200936Z 12008KT 15/12 A3017 RMK A01 T01470123  RH  085%=      5-min Rain = 0
KCL2 200937Z 12007KT 15/12 A3017 RMK A01 T01480123  RH  085%=      5-min Rain = 0
KCL2 200938Z 12008KT 15/12 A3017 RMK A01 T01470123  RH  085%=      5-min Rain = 0
KCL2 200939Z 12008KT 15/12 A3017 RMK A01 T01480123  RH  085%=      5-min Rain = 0
KCL2 200940Z 12008KT 15/12 A3017 RMK A01 T01470123  RH  085%=      5-min Rain = 0
KCL2 200941Z 12008KT 15/12 A3017 RMK A01 T01470123  RH  085%=      5-min Rain = 0
KCL2 200942Z 12007KT 15/12 A3017 RMK A01 T01470123  RH  085%=      5-min Rain = 0
KCL2 200943Z 12008KT 15/12 A3017 RMK A01 T01470123  RH  085%=      5-min Rain = 0
KCL2 200944Z 12008KT 15/12 A3017 RMK A01 T01470123  RH  085%=      5-min Rain = 0
KCL2 200945Z 12008KT 15/12 A3017 RMK A01 T01470123  RH  085%=      5-min Rain = 0
KCL2 200946Z 12007KT 15/12 A3017 RMK A01 T01470123  RH  085%=      5-min Rain = 0
KCL2 200947Z 12008KT 15/12 A3017 RMK A01 T01470123  RH  085%=      5-min Rain = 0
KCL2 200948Z 12007KT 15/12 A3017 RMK A01 T01470123  RH  085%=      5-min Rain = 0
KCL2 200949Z 12007KT 15/12 A3017 RMK A01 T01470123  RH  085%=      5-min Rain = 0
KCL2 200950Z 12006KT 15/12 A3017 RMK A01 T01470122  RH  085%=      5-min Rain = 0
KCL2 200951Z 12007KT 15/12 A3017 RMK A01 T01470122  RH  085%=      5-min Rain = 0
KCL2 200952Z 12007KT 15/12 A3017 RMK A01 T01470122  RH  085%=      5-min Rain = 0
KCL2 200953Z 12007KT 15/12 A3017 RMK A01 T01460122  RH  085%=      5-min Rain = 0
KCL2 200954Z 12007KT 15/12 A3017 RMK A01 T01460122  RH  085%=      5-min Rain = 0
KCL2 200955Z 12007KT 15/12 A3017 RMK A01 T01460122  RH  085%=      5-min Rain = 0
KCL2 200956Z 12007KT 15/12 A3017 RMK A01 T01460122  RH  085%=      5-min Rain = 0
KCL2 200957Z 12006KT 15/12 A3017 RMK A01 T01460122  RH  085%=      5-min Rain = 0
KCL2 200958Z 12006KT 15/12 A3017 RMK A01 T01460122  RH  085%=      5-min Rain = 0
KCL2 200959Z 12006KT 15/12 A3017 RMK A01 T01460121  RH  085%=      5-min Rain = 0
KCL2 201000Z 12006KT 15/12 A3017 RMK A01 T01460122  RH  086%=      5-min Rain = 0
KCL2 201001Z 13006KT 15/12 A3017 RMK A01 T01450121  RH  086%=      5-min Rain = 0
KCL2 201002Z 12006KT 15/12 A3017 RMK A01 T01450121  RH  086%=      5-min Rain = 0
KCL2 201003Z 12006KT 15/12 A3017 RMK A01 T01450121  RH  086%=      5-min Rain = 0
KCL2 201004Z 13007KT 15/12 A3017 RMK A01 T01450121  RH  086%=      5-min Rain = 0
KCL2 201005Z 13006KT 15/12 A3017 RMK A01 T01450121  RH  085%=      5-min Rain = 0
KCL2 201006Z 12006KT 15/12 A3017 RMK A01 T01460121  RH  085%=      5-min Rain = 0
KCL2 201007Z 12006KT 15/12 A3017 RMK A01 T01450121  RH  085%=      5-min Rain = 0
KCL2 201008Z 13006KT 15/12 A3017 RMK A01 T01450121  RH  085%=      5-min Rain = 0
KCL2 201009Z 12007KT 15/12 A3017 RMK A01 T01450121  RH  086%=      5-min Rain = 0
KCL2 201010Z 12006KT 15/12 A3017 RMK A01 T01450121  RH  086%=      5-min Rain = 0
KCL2 201011Z 12006KT 14/12 A3017 RMK A01 T01440121  RH  086%=      5-min Rain = 0
KCL2 201012Z 12006KT 14/12 A3017 RMK A01 T01440121  RH  086%=      5-min Rain = 0
KCL2 201013Z 12007KT 14/12 A3017 RMK A01 T01440121  RH  086%=      5-min Rain = 0
KCL2 201014Z 12007KT 14/12 A3017 RMK A01 T01440121  RH  086%=      5-min Rain = 0
KCL2 201015Z 13007KT 14/12 A3017 RMK A01 T01440121  RH  086%=      5-min Rain = 0
KCL2 201016Z 12006KT 14/12 A3017 RMK A01 T01430120  RH  086%=      5-min Rain = 0
KCL2 201017Z 13006KT 14/12 A3017 RMK A01 T01430120  RH  087%=      5-min Rain = 0
KCL2 201018Z 13006KT 14/12 A3017 RMK A01 T01420121  RH  087%=      5-min Rain = 0
KCL2 201019Z 13007KT 14/12 A3017 RMK A01 T01420121  RH  087%=      5-min Rain = 0
KCL2 201020Z 13006KT 14/12 A3017 RMK A01 T01420120  RH  087%=      5-min Rain = 0
KCL2 201021Z 13007KT 14/12 A3017 RMK A01 T01420120  RH  087%=      5-min Rain = 0
KCL2 201022Z 13007KT 14/12 A3017 RMK A01 T01420120  RH  087%=      5-min Rain = 0
KCL2 201023Z 13007KT 14/12 A3017 RMK A01 T01420120  RH  086%=      5-min Rain = 0
KCL2 201024Z 13007KT 14/12 A3017 RMK A01 T01430120  RH  086%=      5-min Rain = 0
KCL2 201025Z 12006KT 14/12 A3017 RMK A01 T01430120  RH  086%=      5-min Rain = 0
KCL2 201026Z 13006KT 14/12 A3017 RMK A01 T01430120  RH  086%=      5-min Rain = 0
KCL2 201027Z 13006KT 14/12 A3017 RMK A01 T01430120  RH  086%=      5-min Rain = 0
KCL2 201028Z 13006KT 14/12 A3017 RMK A01 T01430120  RH  086%=      5-min Rain = 0
KCL2 201029Z 13006KT 14/12 A3017 RMK A01 T01430120  RH  086%=      5-min Rain = 0
KCL2 201030Z 12006KT 14/12 A3017 RMK A01 T01430120  RH  086%=      5-min Rain = 0
KCL2 201031Z 13007KT 14/12 A3017 RMK A01 T01430120  RH  086%=      5-min Rain = 0
KCL2 201032Z 12007KT 14/12 A3017 RMK A01 T01430120  RH  086%=      5-min Rain = 0
KCL2 201033Z 12007KT 14/12 A3017 RMK A01 T01440120  RH  086%=      5-min Rain = 0
KCL2 201034Z 12006KT 14/12 A3017 RMK A01 T01440120  RH  085%=      5-min Rain = 0
KCL2 201035Z 12007KT 14/12 A3017 RMK A01 T01440120  RH  085%=      5-min Rain = 0
KCL2 201036Z 12006KT 14/12 A3017 RMK A01 T01440120  RH  085%=      5-min Rain = 0
KCL2 201037Z 12006KT 14/12 A3017 RMK A01 T01440120  RH  085%=      5-min Rain = 0
KCL2 201038Z 12006KT 14/12 A3017 RMK A01 T01430120  RH  086%=      5-min Rain = 0
KCL2 201039Z 12006KT 14/12 A3017 RMK A01 T01430119  RH  086%=      5-min Rain = 0
KCL2 201040Z 12006KT 14/12 A3017 RMK A01 T01420119  RH  086%=      5-min Rain = 0
KCL2 201041Z 12006KT 14/12 A3017 RMK A01 T01420119  RH  086%=      5-min Rain = 0
KCL2 201042Z 12007KT 14/12 A3017 RMK A01 T01420119  RH  086%=      5-min Rain = 0
KCL2 201043Z 12006KT 14/12 A3017 RMK A01 T01420119  RH  086%=      5-min Rain = 0
KCL2 201044Z 12006KT 14/12 A3017 RMK A01 T01420119  RH  086%=      5-min Rain = 0
KCL2 201045Z 12006KT 14/12 A3017 RMK A01 T01410119  RH  086%=      5-min Rain = 0
KCL2 201046Z 12006KT 14/12 A3017 RMK A01 T01410119  RH  086%=      5-min Rain = 0
KCL2 201047Z 12006KT 14/12 A3017 RMK A01 T01410119  RH  087%=      5-min Rain = 0
KCL2 201048Z 12006KT 14/12 A3017 RMK A01 T01400119  RH  087%=      5-min Rain = 0
KCL2 201049Z 13006KT 14/12 A3017 RMK A01 T01400119  RH  087%=      5-min Rain = 0
KCL2 201050Z 12005KT 14/12 A3017 RMK A01 T01410119  RH  087%=      5-min Rain = 0
KCL2 201051Z 13005KT 14/12 A3017 RMK A01 T01400119  RH  087%=      5-min Rain = 0
KCL2 201052Z 13006KT 14/12 A3017 RMK A01 T01400118  RH  087%=      5-min Rain = 0
KCL2 201053Z 12006KT 14/12 A3017 RMK A01 T01400119  RH  087%=      5-min Rain = 0
KCL2 201054Z 12006KT 14/12 A3017 RMK A01 T01400118  RH  087%=      5-min Rain = 0
KCL2 201055Z 12005KT 14/12 A3017 RMK A01 T01400119  RH  087%=      5-min Rain = 0
KCL2 201056Z 13005KT 14/12 A3017 RMK A01 T01400118  RH  087%=      5-min Rain = 0
KCL2 201057Z 12006KT 14/12 A3017 RMK A01 T01400119  RH  087%=      5-min Rain = 0
KCL2 201058Z 13005KT 14/12 A3017 RMK A01 T01390118  RH  087%=      5-min Rain = 0
KCL2 201059Z 12005KT 14/12 A3017 RMK A01 T01390118  RH  087%=      5-min Rain = 0
KCL2 201100Z 12006KT 14/12 A3017 RMK A01 T01390118  RH  087%=      5-min Rain = 0
KCL2 201101Z 12005KT 14/12 A3017 RMK A01 T01390118  RH  087%=      5-min Rain = 0
KCL2 201102Z 12006KT 14/12 A3017 RMK A01 T01390118  RH  088%=      5-min Rain = 0
KCL2 201103Z 12006KT 14/12 A3017 RMK A01 T01390118  RH  088%=      5-min Rain = 0
KCL2 201104Z 12005KT 14/12 A3017 RMK A01 T01390118  RH  088%=      5-min Rain = 0
KCL2 201105Z 12005KT 14/12 A3017 RMK A01 T01380118  RH  087%=      5-min Rain = 0
KCL2 201106Z 12005KT 14/12 A3017 RMK A01 T01380118  RH  088%=      5-min Rain = 0
KCL2 201107Z 12005KT 14/12 A3017 RMK A01 T01380118  RH  088%=      5-min Rain = 0
KCL2 201108Z 12005KT 14/12 A3017 RMK A01 T01380118  RH  088%=      5-min Rain = 0
KCL2 201109Z 12005KT 14/12 A3017 RMK A01 T01380118  RH  088%=      5-min Rain = 0
KCL2 201110Z 12006KT 14/12 A3017 RMK A01 T01370118  RH  088%=      5-min Rain = 0
KCL2 201111Z 12005KT 14/12 A3017 RMK A01 T01370118  RH  088%=      5-min Rain = 0
KCL2 201112Z 12005KT 14/12 A3017 RMK A01 T01370117  RH  088%=      5-min Rain = 0
KCL2 201113Z 12005KT 14/12 A3017 RMK A01 T01370118  RH  088%=      5-min Rain = 0
KCL2 201114Z 12005KT 14/12 A3017 RMK A01 T01370118  RH  088%=      5-min Rain = 0
KCL2 201115Z 12005KT 14/12 A3018 RMK A01 T01370118  RH  088%=      5-min Rain = 0
KCL2 201116Z 12005KT 14/12 A3018 RMK A01 T01370117  RH  088%=      5-min Rain = 0
KCL2 201117Z 12005KT 14/12 A3018 RMK A01 T01370118  RH  088%=      5-min Rain = 0
KCL2 201118Z 12005KT 14/12 A3018 RMK A01 T01370117  RH  088%=      5-min Rain = 0
KCL2 201119Z 12005KT 14/12 A3018 RMK A01 T01370117  RH  088%=      5-min Rain = 0
KCL2 201120Z 12005KT 14/12 A3017 RMK A01 T01360117  RH  088%=      5-min Rain = 0
KCL2 201121Z 12005KT 14/12 A3018 RMK A01 T01360117  RH  088%=      5-min Rain = 0
KCL2 201122Z 12005KT 14/12 A3018 RMK A01 T01360117  RH  088%=      5-min Rain = 0
KCL2 201123Z 12005KT 14/12 A3017 RMK A01 T01350117  RH  088%=      5-min Rain = 0
KCL2 201124Z 12005KT 14/12 A3018 RMK A01 T01350117  RH  089%=      5-min Rain = 0
KCL2 201125Z 12005KT 14/12 A3018 RMK A01 T01350117  RH  089%=      5-min Rain = 0
KCL2 201126Z 12005KT 14/12 A3017 RMK A01 T01350117  RH  089%=      5-min Rain = 0
KCL2 201127Z 12004KT 14/12 A3018 RMK A01 T01350117  RH  089%=      5-min Rain = 0
KCL2 201128Z 13004KT 14/12 A3017 RMK A01 T01350117  RH  089%=      5-min Rain = 0
KCL2 201129Z 13005KT 14/12 A3017 RMK A01 T01350116  RH  089%=      5-min Rain = 0
KCL2 201130Z 13004KT 14/12 A3018 RMK A01 T01350117  RH  089%=      5-min Rain = 0
KCL2 201131Z 13004KT 14/12 A3017 RMK A01 T01350116  RH  089%=      5-min Rain = 0
KCL2 201132Z 13005KT 13/12 A3017 RMK A01 T01340116  RH  089%=      5-min Rain = 0
KCL2 201133Z 13004KT 13/12 A3018 RMK A01 T01340116  RH  089%=      5-min Rain = 0
KCL2 201134Z 13004KT 14/12 A3017 RMK A01 T01350117  RH  089%=      5-min Rain = 0
KCL2 201135Z 13004KT 14/12 A3018 RMK A01 T01350117  RH  089%=      5-min Rain = 0
KCL2 201136Z 13004KT 13/12 A3018 RMK A01 T01340116  RH  089%=      5-min Rain = 0
KCL2 201137Z 13005KT 13/12 A3018 RMK A01 T01340116  RH  089%=      5-min Rain = 0
KCL2 201138Z 13004KT 13/12 A3018 RMK A01 T01340116  RH  089%=      5-min Rain = 0
KCL2 201139Z 13004KT 13/12 A3018 RMK A01 T01340116  RH  089%=      5-min Rain = 0
KCL2 201140Z 13004KT 13/12 A3018 RMK A01 T01340116  RH  089%=      5-min Rain = 0
KCL2 201141Z 13004KT 13/12 A3018 RMK A01 T01340116  RH  089%=      5-min Rain = 0
KCL2 201142Z 13005KT 13/12 A3018 RMK A01 T01330116  RH  089%=      5-min Rain = 0
KCL2 201143Z 12005KT 13/12 A3018 RMK A01 T01330116  RH  089%=      5-min Rain = 0
KCL2 201144Z 12005KT 13/12 A3018 RMK A01 T01330115  RH  089%=      5-min Rain = 0
KCL2 201145Z 12005KT 13/12 A3018 RMK A01 T01330116  RH  089%=      5-min Rain = 0
KCL2 201146Z 12005KT 13/12 A3018 RMK A01 T01330116  RH  089%=      5-min Rain = 0
KCL2 201147Z 12005KT 13/12 A3018 RMK A01 T01330115  RH  089%=      5-min Rain = 0
KCL2 201148Z 12005KT 13/12 A3018 RMK A01 T01330115  RH  089%=      5-min Rain = 0
KCL2 201149Z 13005KT 13/12 A3018 RMK A01 T01330115  RH  089%=      5-min Rain = 0
KCL2 201150Z 12005KT 13/12 A3018 RMK A01 T01330115  RH  089%=      5-min Rain = 0
KCL2 201151Z 12005KT 13/12 A3018 RMK A01 T01320115  RH  089%=      5-min Rain = 0
KCL2 201152Z 13005KT 13/12 A3018 RMK A01 T01320115  RH  089%=      5-min Rain = 0
KCL2 201153Z 13005KT 13/12 A3018 RMK A01 T01320115  RH  090%=      5-min Rain = 0
KCL2 201154Z 13005KT 13/12 A3018 RMK A01 T01320115  RH  090%=      5-min Rain = 0
KCL2 201155Z 13005KT 13/12 A3018 RMK A01 T01320115  RH  090%=      5-min Rain = 0
KCL2 201156Z 12005KT 13/12 A3018 RMK A01 T01320115  RH  090%=      5-min Rain = 0
KCL2 201157Z 12005KT 13/12 A3018 RMK A01 T01320115  RH  090%=      5-min Rain = 0
KCL2 201158Z 12005KT 13/12 A3018 RMK A01 T01320115  RH  090%=      5-min Rain = 0
KCL2 201159Z 12005KT 13/12 A3018 RMK A01 T01320115  RH  090%=      5-min Rain = 0
KCL2 201200Z 12005KT 13/12 A3018 RMK A01 T01330116  RH  089%=      5-min Rain = 0
KCL2 201201Z 12005KT 13/12 A3018 RMK A01 T01330115  RH  089%=      5-min Rain = 0
KCL2 201202Z 12005KT 13/12 A3018 RMK A01 T01320115  RH  089%=      5-min Rain = 0
KCL2 201203Z 12005KT 13/12 A3018 RMK A01 T01320115  RH  089%=      5-min Rain = 0
KCL2 201204Z 13005KT 13/12 A3018 RMK A01 T01320115  RH  089%=      5-min Rain = 0
KCL2 201205Z 13005KT 13/12 A3018 RMK A01 T01320115  RH  089%=      5-min Rain = 0
KCL2 201206Z 13005KT 13/12 A3018 RMK A01 T01320115  RH  089%=      5-min Rain = 0
KCL2 201207Z 13005KT 13/12 A3018 RMK A01 T01320115  RH  090%=      5-min Rain = 0
KCL2 201208Z 13005KT 13/12 A3018 RMK A01 T01320115  RH  089%=      5-min Rain = 0
KCL2 201209Z 13005KT 13/12 A3018 RMK A01 T01320115  RH  089%=      5-min Rain = 0
KCL2 201210Z 13005KT 13/12 A3018 RMK A01 T01320115  RH  089%=      5-min Rain = 0
KCL2 201211Z 13004KT 13/12 A3018 RMK A01 T01320115  RH  089%=      5-min Rain = 0
KCL2 201212Z 12005KT 13/12 A3018 RMK A01 T01320115  RH  089%=      5-min Rain = 0
KCL2 201213Z 13005KT 13/12 A3018 RMK A01 T01320115  RH  089%=      5-min Rain = 0
KCL2 201214Z 13005KT 13/12 A3018 RMK A01 T01320115  RH  089%=      5-min Rain = 0
KCL2 201215Z 12005KT 13/12 A3018 RMK A01 T01320115  RH  089%=      5-min Rain = 0
KCL2 201216Z 13005KT 13/12 A3018 RMK A01 T01320115  RH  089%=      5-min Rain = 0
KCL2 201217Z 13005KT 13/12 A3018 RMK A01 T01320115  RH  089%=      5-min Rain = 0
KCL2 201218Z 12004KT 13/12 A3018 RMK A01 T01320115  RH  089%=      5-min Rain = 0
KCL2 201219Z 12004KT 13/12 A3018 RMK A01 T01320115  RH  089%=      5-min Rain = 0
KCL2 201220Z 12004KT 13/11 A3018 RMK A01 T01320114  RH  089%=      5-min Rain = 0
KCL2 201221Z 12004KT 13/12 A3018 RMK A01 T01320115  RH  089%=      5-min Rain = 0
KCL2 201222Z 12004KT 13/12 A3018 RMK A01 T01320115  RH  089%=      5-min Rain = 0
KCL2 201223Z 12004KT 13/12 A3018 RMK A01 T01320115  RH  089%=      5-min Rain = 0
KCL2 201224Z 12004KT 13/11 A3018 RMK A01 T01310114  RH  089%=      5-min Rain = 0
KCL2 201225Z 12004KT 13/11 A3018 RMK A01 T01310114  RH  089%=      5-min Rain = 0
KCL2 201226Z 12004KT 13/11 A3018 RMK A01 T01310114  RH  089%=      5-min Rain = 0
KCL2 201227Z 13004KT 13/11 A3018 RMK A01 T01310114  RH  089%=      5-min Rain = 0
KCL2 201228Z 13004KT 13/11 A3019 RMK A01 T01310114  RH  090%=      5-min Rain = 0
KCL2 201229Z 13004KT 13/11 A3018 RMK A01 T01300114  RH  090%=      5-min Rain = 0
KCL2 201230Z 13004KT 13/11 A3018 RMK A01 T01300114  RH  090%=      5-min Rain = 0
KCL2 201231Z 13004KT 13/11 A3018 RMK A01 T01300114  RH  090%=      5-min Rain = 0
KCL2 201232Z 13003KT 13/11 A3018 RMK A01 T01300114  RH  090%=      5-min Rain = 0
KCL2 201233Z 13003KT 13/12 A3019 RMK A01 T01310115  RH  090%=      5-min Rain = 0
KCL2 201234Z 13003KT 13/11 A3019 RMK A01 T01300114  RH  090%=      5-min Rain = 0
KCL2 201235Z 13003KT 13/11 A3019 RMK A01 T01300114  RH  090%=      5-min Rain = 0
KCL2 201236Z 13003KT 13/11 A3019 RMK A01 T01310114  RH  090%=      5-min Rain = 0
KCL2 201237Z 13003KT 13/11 A3019 RMK A01 T01310114  RH  090%=      5-min Rain = 0
KCL2 201238Z 13002KT 13/11 A3019 RMK A01 T01310114  RH  090%=      5-min Rain = 0
KCL2 201239Z 13003KT 13/11 A3019 RMK A01 T01310114  RH  090%=      5-min Rain = 0
KCL2 201240Z 13003KT 13/12 A3019 RMK A01 T01310115  RH  090%=      5-min Rain = 0
KCL2 201241Z 13003KT 13/12 A3019 RMK A01 T01310115  RH  090%=      5-min Rain = 0
KCL2 201242Z 12004KT 13/12 A3019 RMK A01 T01320115  RH  090%=      5-min Rain = 0
KCL2 201243Z 13004KT 13/12 A3019 RMK A01 T01320115  RH  089%=      5-min Rain = 0
KCL2 201244Z 13003KT 13/11 A3019 RMK A01 T01320114  RH  089%=      5-min Rain = 0
KCL2 201245Z 13003KT 13/11 A3019 RMK A01 T01310113  RH  089%=      5-min Rain = 0
KCL2 201246Z 13003KT 13/11 A3019 RMK A01 T01310113  RH  089%=      5-min Rain = 0
KCL2 201247Z 13003KT 13/11 A3019 RMK A01 T01300114  RH  090%=      5-min Rain = 0
KCL2 201248Z 13003KT 13/11 A3019 RMK A01 T01300114  RH  090%=      5-min Rain = 0
KCL2 201249Z 12003KT 13/11 A3019 RMK A01 T01300114  RH  090%=      5-min Rain = 0
KCL2 201250Z 12003KT 13/11 A3019 RMK A01 T01300114  RH  090%=      5-min Rain = 0
KCL2 201251Z 12003KT 13/11 A3019 RMK A01 T01300114  RH  090%=      5-min Rain = 0
KCL2 201252Z 12003KT 13/12 A3019 RMK A01 T01300115  RH  090%=      5-min Rain = 0
KCL2 201253Z 12003KT 13/12 A3019 RMK A01 T01310115  RH  090%=      5-min Rain = 0
KCL2 201254Z 12004KT 13/12 A3019 RMK A01 T01310115  RH  090%=      5-min Rain = 0
KCL2 201255Z 12004KT 13/12 A3019 RMK A01 T01310115  RH  090%=      5-min Rain = 0
KCL2 201256Z 12005KT 13/12 A3019 RMK A01 T01310115  RH  090%=      5-min Rain = 0
KCL2 201257Z 12005KT 13/12 A3019 RMK A01 T01320115  RH  090%=      5-min Rain = 0
KCL2 201258Z 12005KT 13/12 A3019 RMK A01 T01320115  RH  090%=      5-min Rain = 0
KCL2 201259Z 12005KT 13/12 A3019 RMK A01 T01320115  RH  090%=      5-min Rain = 0
KCL2 201300Z 12005KT 13/12 A3019 RMK A01 T01320116  RH  090%=      5-min Rain = 0
KCL2 201301Z 12005KT 13/12 A3019 RMK A01 T01320116  RH  090%=      5-min Rain = 0
KCL2 201302Z 13005KT 13/12 A3019 RMK A01 T01320116  RH  090%=      5-min Rain = 0
KCL2 201303Z 12004KT 13/12 A3019 RMK A01 T01320116  RH  090%=      5-min Rain = 0
KCL2 201304Z 12004KT 13/12 A3019 RMK A01 T01320117  RH  090%=      5-min Rain = 0
KCL2 201305Z 12004KT 13/12 A3019 RMK A01 T01330117  RH  090%=      5-min Rain = 0
KCL2 201306Z 12004KT 13/12 A3019 RMK A01 T01330117  RH  090%=      5-min Rain = 0
KCL2 201307Z 12005KT 13/12 A3019 RMK A01 T01340118  RH  090%=      5-min Rain = 0
KCL2 201308Z 12005KT 14/12 A3019 RMK A01 T01350118  RH  090%=      5-min Rain = 0
KCL2 201309Z 12005KT 14/12 A3019 RMK A01 T01350118  RH  089%=      5-min Rain = 0
KCL2 201310Z 13005KT 14/12 A3019 RMK A01 T01360119  RH  089%=      5-min Rain = 0
KCL2 201311Z 13005KT 14/12 A3019 RMK A01 T01370119  RH  089%=      5-min Rain = 0
KCL2 201312Z 13005KT 14/12 A3019 RMK A01 T01370120  RH  089%=      5-min Rain = 0
KCL2 201313Z 13005KT 14/12 A3019 RMK A01 T01380120  RH  089%=      5-min Rain = 0
KCL2 201314Z 13005KT 14/12 A3019 RMK A01 T01380121  RH  089%=      5-min Rain = 0
KCL2 201315Z 13005KT 14/12 A302 RMK A01 T01390121  RH  089%=      5-min Rain = 0
KCL2 201316Z 13005KT 14/12 A302 RMK A01 T01400121  RH  089%=      5-min Rain = 0
KCL2 201317Z 13005KT 14/12 A302 RMK A01 T01410122  RH  088%=      5-min Rain = 0
KCL2 201318Z 13005KT 14/12 A302 RMK A01 T01420122  RH  088%=      5-min Rain = 0
KCL2 201319Z 13005KT 14/12 A302 RMK A01 T01430122  RH  088%=      5-min Rain = 0
KCL2 201320Z 13006KT 14/12 A302 RMK A01 T01430122  RH  087%=      5-min Rain = 0
KCL2 201321Z 13005KT 14/12 A302 RMK A01 T01440123  RH  087%=      5-min Rain = 0
KCL2 201322Z 12005KT 15/12 A302 RMK A01 T01450123  RH  086%=      5-min Rain = 0
KCL2 201323Z 12004KT 15/12 A302 RMK A01 T01460123  RH  086%=      5-min Rain = 0
KCL2 201324Z 13004KT 15/12 A302 RMK A01 T01460123  RH  086%=      5-min Rain = 0
KCL2 201325Z 13004KT 15/12 A302 RMK A01 T01470124  RH  086%=      5-min Rain = 0
KCL2 201326Z 13004KT 15/12 A302 RMK A01 T01480124  RH  086%=      5-min Rain = 0
KCL2 201327Z 12004KT 15/12 A302 RMK A01 T01480124  RH  085%=      5-min Rain = 0
KCL2 201328Z 12004KT 15/12 A302 RMK A01 T01490124  RH  085%=      5-min Rain = 0
KCL2 201329Z 12005KT 15/12 A302 RMK A01 T01490124  RH  085%=      5-min Rain = 0
KCL2 201330Z 12005KT 15/12 A302 RMK A01 T01500123  RH  084%=      5-min Rain = 0
KCL2 201331Z 12004KT 15/12 A302 RMK A01 T01500123  RH  084%=      5-min Rain = 0
KCL2 201332Z 12005KT 15/12 A302 RMK A01 T01510124  RH  084%=      5-min Rain = 0
KCL2 201333Z 12004KT 15/12 A302 RMK A01 T01510124  RH  084%=      5-min Rain = 0
KCL2 201334Z 12005KT 15/12 A302 RMK A01 T01510124  RH  084%=      5-min Rain = 0
KCL2 201335Z 12004KT 15/12 A302 RMK A01 T01520124  RH  084%=      5-min Rain = 0
KCL2 201336Z 12004KT 15/13 A302 RMK A01 T01520125  RH  084%=      5-min Rain = 0
KCL2 201337Z 12005KT 15/13 A302 RMK A01 T01530125  RH  084%=      5-min Rain = 0
KCL2 201338Z 12005KT 15/13 A302 RMK A01 T01530126  RH  084%=      5-min Rain = 0
KCL2 201339Z 12004KT 15/13 A302 RMK A01 T01540125  RH  083%=      5-min Rain = 0
KCL2 201340Z 12004KT 15/13 A302 RMK A01 T01540126  RH  083%=      5-min Rain = 0
KCL2 201341Z 12005KT 16/13 A302 RMK A01 T01550127  RH  083%=      5-min Rain = 0
KCL2 201342Z 12005KT 16/13 A302 RMK A01 T01560126  RH  082%=      5-min Rain = 0
KCL2 201343Z 12005KT 16/13 A302 RMK A01 T01560126  RH  082%=      5-min Rain = 0
KCL2 201344Z 12004KT 16/13 A302 RMK A01 T01560126  RH  082%=      5-min Rain = 0
KCL2 201345Z 12004KT 16/13 A302 RMK A01 T01570127  RH  082%=      5-min Rain = 0
KCL2 201346Z 13005KT 16/13 A302 RMK A01 T01580127  RH  082%=      5-min Rain = 0
KCL2 201347Z 12005KT 16/13 A302 RMK A01 T01580126  RH  081%=      5-min Rain = 0
KCL2 201348Z 12005KT 16/13 A302 RMK A01 T01580127  RH  082%=      5-min Rain = 0
KCL2 201349Z 11005KT 16/13 A302 RMK A01 T01590126  RH  081%=      5-min Rain = 0
KCL2 201350Z 11005KT 16/13 A302 RMK A01 T01590126  RH  080%=      5-min Rain = 0
KCL2 201351Z 10004KT 16/13 A302 RMK A01 T01590125  RH  081%=      5-min Rain = 0
KCL2 201352Z 10005KT 16/13 A302 RMK A01 T01590125  RH  080%=      5-min Rain = 0
KCL2 201353Z 11005KT 16/13 A302 RMK A01 T01600126  RH  080%=      5-min Rain = 0
KCL2 201354Z 11005KT 16/13 A302 RMK A01 T01600126  RH  080%=      5-min Rain = 0
KCL2 201355Z 10005KT 16/13 A302 RMK A01 T01600125  RH  079%=      5-min Rain = 0
KCL2 201356Z 11005KT 16/13 A302 RMK A01 T01610125  RH  079%=      5-min Rain = 0
KCL2 201357Z 11005KT 16/13 A3021 RMK A01 T01610126  RH  079%=      5-min Rain = 0
KCL2 201358Z 11005KT 16/13 A3021 RMK A01 T01620125  RH  079%=      5-min Rain = 0
KCL2 201359Z 11005KT 16/12 A3021 RMK A01 T01620124  RH  078%=      5-min Rain = 0
KCL2 201400Z 10004KT 16/13 A3021 RMK A01 T01620125  RH  078%=      5-min Rain = 0
KCL2 201401Z 11004KT 16/13 A3021 RMK A01 T01630125  RH  078%=      5-min Rain = 0
KCL2 201402Z 10004KT 16/13 A3021 RMK A01 T01640127  RH  079%=      5-min Rain = 0
KCL2 201403Z 10004KT 16/13 A3021 RMK A01 T01640126  RH  078%=      5-min Rain = 0
KCL2 201404Z 10004KT 16/12 A3021 RMK A01 T01640124  RH  077%=      5-min Rain = 0
KCL2 201405Z 10005KT 17/12 A3021 RMK A01 T01650124  RH  077%=      5-min Rain = 0
KCL2 201406Z 10005KT 17/13 A3021 RMK A01 T01650125  RH  077%=      5-min Rain = 0
KCL2 201407Z 10005KT 17/13 A3021 RMK A01 T01660126  RH  077%=      5-min Rain = 0
KCL2 201408Z 10005KT 17/13 A3021 RMK A01 T01660126  RH  077%=      5-min Rain = 0
KCL2 201409Z 11005KT 17/13 A3021 RMK A01 T01660125  RH  077%=      5-min Rain = 0
KCL2 201410Z 11005KT 17/12 A3021 RMK A01 T01660124  RH  076%=      5-min Rain = 0
KCL2 201411Z 11004KT 17/12 A3021 RMK A01 T01670124  RH  076%=      5-min Rain = 0
KCL2 201412Z 10005KT 17/13 A3021 RMK A01 T01670125  RH  076%=      5-min Rain = 0
KCL2 201413Z 10004KT 17/13 A3021 RMK A01 T01680125  RH  075%=      5-min Rain = 0
KCL2 201414Z 12005KT 17/13 A3021 RMK A01 T01690126  RH  076%=      5-min Rain = 0
KCL2 201415Z 10006KT 17/13 A3021 RMK A01 T01690125  RH  075%=      5-min Rain = 0
KCL2 201416Z 11005KT 17/12 A3021 RMK A01 T01690123  RH  074%=      5-min Rain = 0
KCL2 201417Z 10006KT 17/12 A3021 RMK A01 T01690124  RH  075%=      5-min Rain = 0
KCL2 201418Z 11006KT 17/12 A3021 RMK A01 T01690124  RH  074%=      5-min Rain = 0
KCL2 201419Z 11005KT 17/12 A3021 RMK A01 T01690124  RH  075%=      5-min Rain = 0
KCL2 201420Z 10005KT 17/12 A3021 RMK A01 T01690124  RH  075%=      5-min Rain = 0
KCL2 201421Z 10006KT 17/13 A3021 RMK A01 T01690125  RH  075%=      5-min Rain = 0
KCL2 201422Z 10005KT 17/12 A3021 RMK A01 T01690123  RH  074%=      5-min Rain = 0
KCL2 201423Z 10005KT 17/12 A3021 RMK A01 T01690124  RH  074%=      5-min Rain = 0
KCL2 201424Z 10004KT 17/13 A3021 RMK A01 T01700127  RH  076%=      5-min Rain = 0
KCL2 201425Z 10006KT 17/13 A3021 RMK A01 T01710125  RH  074%=      5-min Rain = 0
KCL2 201426Z 10005KT 17/13 A3021 RMK A01 T01710125  RH  074%=      5-min Rain = 0
KCL2 201427Z 10005KT 17/12 A3021 RMK A01 T01720124  RH  073%=      5-min Rain = 0
KCL2 201428Z 11005KT 17/12 A3021 RMK A01 T01710124  RH  074%=      5-min Rain = 0
KCL2 201429Z 10006KT 17/13 A3021 RMK A01 T01720127  RH  075%=      5-min Rain = 0
KCL2 201430Z 12004KT 17/13 A3021 RMK A01 T01730126  RH  074%=      5-min Rain = 0
KCL2 201431Z 13004KT 17/13 A3021 RMK A01 T01740129  RH  075%=      5-min Rain = 0
KCL2 201432Z 13005KT 18/13 A3022 RMK A01 T01750127  RH  073%=      5-min Rain = 0
KCL2 201433Z 13007KT 18/13 A3021 RMK A01 T01760125  RH  072%=      5-min Rain = 0
KCL2 201434Z 13007KT 18/12 A3022 RMK A01 T01750124  RH  072%=      5-min Rain = 0
KCL2 201435Z 13008KT 17/12 A3022 RMK A01 T01740123  RH  072%=      5-min Rain = 0
KCL2 201436Z 12006KT 17/12 A3022 RMK A01 T01740123  RH  072%=      5-min Rain = 0
KCL2 201437Z 13008KT 17/12 A3022 RMK A01 T01740122  RH  072%=      5-min Rain = 0
KCL2 201438Z 13007KT 17/12 A3022 RMK A01 T01740123  RH  072%=      5-min Rain = 0
KCL2 201439Z 13006KT 18/12 A3022 RMK A01 T01750123  RH  072%=      5-min Rain = 0
KCL2 201440Z 14007KT 18/12 A3022 RMK A01 T01750124  RH  072%=      5-min Rain = 0
KCL2 201441Z 12007KT 18/12 A3022 RMK A01 T01750123  RH  072%=      5-min Rain = 0
KCL2 201442Z 12007KT 18/12 A3022 RMK A01 T01760124  RH  072%=      5-min Rain = 0
KCL2 201443Z 13007KT 18/12 A3022 RMK A01 T01760123  RH  071%=      5-min Rain = 0
KCL2 201444Z 12007KT 18/12 A3022 RMK A01 T01770124  RH  071%=      5-min Rain = 0
KCL2 201445Z 13007KT 18/12 A3022 RMK A01 T01770123  RH  071%=      5-min Rain = 0
KCL2 201446Z 13006KT 18/12 A3022 RMK A01 T01770123  RH  071%=      5-min Rain = 0
KCL2 201447Z 12006KT 18/13 A3022 RMK A01 T01780126  RH  071%=      5-min Rain = 0
KCL2 201448Z 12007KT 18/13 A3022 RMK A01 T01780125  RH  071%=      5-min Rain = 0
KCL2 201449Z 12006KT 18/12 A3022 RMK A01 T01790124  RH  070%=      5-min Rain = 0
KCL2 201450Z 11006KT 18/13 A3022 RMK A01 T01800126  RH  071%=      5-min Rain = 0
KCL2 201451Z 11004KT 18/13 A3022 RMK A01 T01800125  RH  070%=      5-min Rain = 0
KCL2 201452Z 12005KT 18/13 A3022 RMK A01 T01810128  RH  071%=      5-min Rain = 0
KCL2 201453Z 11006KT 18/13 A3022 RMK A01 T01820127  RH  070%=      5-min Rain = 0
KCL2 201454Z 11006KT 18/13 A3022 RMK A01 T01820127  RH  070%=      5-min Rain = 0
KCL2 201455Z 11007KT 18/13 A3022 RMK A01 T01820128  RH  071%=      5-min Rain = 0
KCL2 201456Z 12006KT 18/13 A3022 RMK A01 T01820128  RH  071%=      5-min Rain = 0
KCL2 201457Z 13005KT 18/13 A3022 RMK A01 T01820125  RH  069%=      5-min Rain = 0
KCL2 201458Z 14006KT 18/13 A3022 RMK A01 T01810127  RH  070%=      5-min Rain = 0
KCL2 201459Z 13007KT 18/13 A3022 RMK A01 T01820127  RH  070%=      5-min Rain = 0
KCL2 201500Z 12005KT 18/13 A3022 RMK A01 T01840129  RH  070%=      5-min Rain = 0
KCL2 201501Z 13005KT 19/13 A3022 RMK A01 T01850129  RH  069%=      5-min Rain = 0
KCL2 201502Z 11005KT 19/13 A3022 RMK A01 T01870128  RH  069%=      5-min Rain = 0
KCL2 201503Z 13006KT 19/13 A3022 RMK A01 T01880130  RH  069%=      5-min Rain = 0
KCL2 201504Z 13006KT 19/13 A3022 RMK A01 T01880128  RH  068%=      5-min Rain = 0
KCL2 201505Z 13007KT 19/13 A3022 RMK A01 T01880126  RH  067%=      5-min Rain = 0
KCL2 201506Z 14007KT 19/12 A3022 RMK A01 T01870124  RH  067%=      5-min Rain = 0
KCL2 201507Z 13005KT 19/12 A3022 RMK A01 T01860124  RH  067%=      5-min Rain = 0
KCL2 201508Z 12005KT 19/13 A3022 RMK A01 T01870127  RH  068%=      5-min Rain = 0
KCL2 201509Z 12006KT 19/13 A3022 RMK A01 T01880130  RH  069%=      5-min Rain = 0
KCL2 201510Z 13005KT 19/13 A3022 RMK A01 T01900126  RH  067%=      5-min Rain = 0
KCL2 201511Z 12004KT 19/13 A3022 RMK A01 T01890129  RH  068%=      5-min Rain = 0
KCL2 201512Z 13003KT 19/13 A3022 RMK A01 T01900130  RH  068%=      5-min Rain = 0
KCL2 201513Z 11004KT 19/13 A3022 RMK A01 T01910131  RH  068%=      5-min Rain = 0
KCL2 201514Z 09004KT 19/13 A3022 RMK A01 T01930129  RH  067%=      5-min Rain = 0
KCL2 201515Z 11002KT 19/13 A3022 RMK A01 T01910128  RH  067%=      5-min Rain = 0
KCL2 201516Z 13004KT 19/13 A3022 RMK A01 T01910130  RH  068%=      5-min Rain = 0
KCL2 201517Z 13007KT 19/13 A3022 RMK A01 T01920130  RH  067%=      5-min Rain = 0
KCL2 201518Z 12005KT 19/13 A3022 RMK A01 T01920129  RH  067%=      5-min Rain = 0
KCL2 201519Z 11003KT 19/13 A3022 RMK A01 T01920133  RH  069%=      5-min Rain = 0
KCL2 201520Z 11004KT 19/13 A3022 RMK A01 T01930133  RH  068%=      5-min Rain = 0
KCL2 201521Z 12006KT 19/13 A3022 RMK A01 T01940129  RH  066%=      5-min Rain = 0
KCL2 201522Z 11005KT 19/13 A3022 RMK A01 T01930129  RH  066%=      5-min Rain = 0
KCL2 201523Z 10005KT 19/13 A3022 RMK A01 T01930129  RH  067%=      5-min Rain = 0
KCL2 201524Z 11003KT 19/13 A3022 RMK A01 T01930131  RH  067%=      5-min Rain = 0
KCL2 201525Z 14003KT 19/13 A3022 RMK A01 T01940131  RH  067%=      5-min Rain = 0
KCL2 201526Z 11002KT 20/13 A3022 RMK A01 T01950131  RH  066%=      5-min Rain = 0
KCL2 201527Z 12005KT 20/13 A3022 RMK A01 T01960131  RH  066%=      5-min Rain = 0
KCL2 201528Z 13004KT 20/13 A3022 RMK A01 T01960128  RH  065%=      5-min Rain = 0
KCL2 201529Z 12005KT 20/13 A3022 RMK A01 T01960130  RH  066%=      5-min Rain = 0
KCL2 201530Z 09004KT 20/13 A3022 RMK A01 T01960128  RH  065%=      5-min Rain = 0
KCL2 201531Z 12004KT 20/13 A3022 RMK A01 T01950131  RH  066%=      5-min Rain = 0
KCL2 201532Z 12002KT 20/13 A3022 RMK A01 T01970133  RH  066%=      5-min Rain = 0
KCL2 201533Z 11003KT 20/13 A3022 RMK A01 T01990132  RH  065%=      5-min Rain = 0
KCL2 201534Z 11003KT 20/13 A3022 RMK A01 T02000132  RH  065%=      5-min Rain = 0
KCL2 201535Z 12003KT 20/13 A3022 RMK A01 T02010131  RH  064%=      5-min Rain = 0
KCL2 201536Z 13004KT 20/13 A3022 RMK A01 T02000129  RH  064%=      5-min Rain = 0
KCL2 201537Z 13004KT 20/13 A3022 RMK A01 T01990127  RH  063%=      5-min Rain = 0
KCL2 201538Z 13003KT 20/13 A3022 RMK A01 T01990126  RH  063%=      5-min Rain = 0
KCL2 201539Z 14005KT 20/13 A3022 RMK A01 T02000128  RH  063%=      5-min Rain = 0
KCL2 201540Z 14003KT 20/13 A3022 RMK A01 T02000128  RH  063%=      5-min Rain = 0
KCL2 201541Z 14003KT 20/13 A3022 RMK A01 T02010128  RH  063%=      5-min Rain = 0
KCL2 201542Z 13003KT 20/13 A3022 RMK A01 T02020127  RH  062%=      5-min Rain = 0
KCL2 201543Z 13002KT 20/13 A3022 RMK A01 T02020127  RH  062%=      5-min Rain = 0
KCL2 201544Z 11002KT 20/13 A3022 RMK A01 T02030128  RH  062%=      5-min Rain = 0
KCL2 201545Z 12003KT 20/13 A3022 RMK A01 T02030129  RH  062%=      5-min Rain = 0
KCL2 201546Z 11003KT 21/13 A3022 RMK A01 T02050129  RH  062%=      5-min Rain = 0
KCL2 201547Z 14003KT 21/13 A3022 RMK A01 T02050127  RH  061%=      5-min Rain = 0
KCL2 201548Z 10003KT 21/13 A3022 RMK A01 T02060127  RH  060%=      5-min Rain = 0
KCL2 201549Z 07002KT 21/12 A3022 RMK A01 T02060123  RH  059%=      5-min Rain = 0
KCL2 201550Z 07003KT 21/12 A3022 RMK A01 T02050121  RH  058%=      5-min Rain = 0
KCL2 201551Z 08002KT 20/13 A3022 RMK A01 T02030125  RH  061%=      5-min Rain = 0
KCL2 201552Z 10003KT 20/12 A3022 RMK A01 T02030123  RH  060%=      5-min Rain = 0
KCL2 201553Z 11003KT 20/12 A3022 RMK A01 T02030123  RH  060%=      5-min Rain = 0
KCL2 201554Z 08004KT 20/12 A3022 RMK A01 T02040124  RH  060%=      5-min Rain = 0
KCL2 201555Z 07004KT 20/12 A3022 RMK A01 T02040122  RH  059%=      5-min Rain = 0
KCL2 201556Z 06004KT 21/11 A3022 RMK A01 T02050113  RH  055%=      5-min Rain = 0
KCL2 201557Z 07005KT 20/11 A3022 RMK A01 T02040113  RH  056%=      5-min Rain = 0
KCL2 201558Z 06006KT 20/12 A3022 RMK A01 T02040116  RH  057%=      5-min Rain = 0
KCL2 201559Z 08006KT 20/12 A3022 RMK A01 T02040116  RH  057%=      5-min Rain = 0
KCL2 201600Z 08006KT 20/12 A3022 RMK A01 T02040121  RH  059%=      5-min Rain = 0
KCL2 201601Z 08004KT 20/12 A3022 RMK A01 T02040121  RH  059%=      5-min Rain = 0
KCL2 201602Z 09004KT 20/12 A3022 RMK A01 T02030120  RH  059%=      5-min Rain = 0
KCL2 201603Z 08003KT 20/12 A3022 RMK A01 T02030115  RH  057%=      5-min Rain = 0
KCL2 201604Z 10002KT 20/12 A3022 RMK A01 T02030115  RH  057%=      5-min Rain = 0
KCL2 201605Z 13005KT 20/12 A3022 RMK A01 T02040117  RH  057%=      5-min Rain = 0
KCL2 201606Z 12004KT 21/12 A3022 RMK A01 T02050115  RH  056%=      5-min Rain = 0
KCL2 201607Z 12003KT 21/11 A3022 RMK A01 T02060111  RH  054%=      5-min Rain = 0
KCL2 201608Z 10004KT 21/12 A3022 RMK A01 T02080116  RH  056%=      5-min Rain = 0
KCL2 201609Z 09003KT 21/12 A3022 RMK A01 T02080116  RH  055%=      5-min Rain = 0
KCL2 201610Z 11003KT 21/12 A3022 RMK A01 T02090118  RH  056%=      5-min Rain = 0
KCL2 201611Z 13004KT 21/12 A3022 RMK A01 T02100117  RH  055%=      5-min Rain = 0
KCL2 201612Z 12004KT 21/12 A3022 RMK A01 T02100120  RH  056%=      5-min Rain = 0
KCL2 201613Z 11004KT 21/12 A3022 RMK A01 T02110120  RH  056%=      5-min Rain = 0
KCL2 201614Z 08003KT 21/13 A3022 RMK A01 T02110125  RH  058%=      5-min Rain = 0
KCL2 201615Z 06004KT 21/12 A3022 RMK A01 T02110123  RH  057%=      5-min Rain = 0
KCL2 201616Z 06003KT 21/12 A3022 RMK A01 T02110121  RH  056%=      5-min Rain = 0
KCL2 201617Z 07001KT 21/12 A3022 RMK A01 T02110124  RH  058%=      5-min Rain = 0
KCL2 201618Z 05003KT 21/13 A3022 RMK A01 T02110125  RH  058%=      5-min Rain = 0
KCL2 201619Z 08006KT 21/13 A3022 RMK A01 T02130128  RH  058%=      5-min Rain = 0
KCL2 201620Z 10004KT 21/13 A3022 RMK A01 T02140126  RH  057%=      5-min Rain = 0
KCL2 201621Z 11002KT 21/12 A3022 RMK A01 T02120122  RH  056%=      5-min Rain = 0
KCL2 201622Z 07005KT 21/12 A3022 RMK A01 T02120118  RH  055%=      5-min Rain = 0
KCL2 201623Z 07004KT 21/11 A3022 RMK A01 T02130113  RH  053%=      5-min Rain = 0
KCL2 201624Z 06004KT 21/11 A3022 RMK A01 T02120112  RH  053%=      5-min Rain = 0
KCL2 201625Z 06005KT 21/11 A3022 RMK A01 T02120114  RH  053%=      5-min Rain = 0
KCL2 201626Z 07005KT 21/11 A3022 RMK A01 T02130109  RH  051%=      5-min Rain = 0
KCL2 201627Z 09005KT 21/11 A3022 RMK A01 T02130112  RH  053%=      5-min Rain = 0
KCL2 201628Z 10004KT 21/11 A3022 RMK A01 T02120111  RH  053%=      5-min Rain = 0
KCL2 201629Z 09003KT 21/11 A3022 RMK A01 T02120113  RH  053%=      5-min Rain = 0
KCL2 201630Z 10005KT 21/12 A3022 RMK A01 T02130116  RH  054%=      5-min Rain = 0
KCL2 201631Z 09005KT 21/12 A3022 RMK A01 T02140115  RH  053%=      5-min Rain = 0
KCL2 201632Z 09003KT 21/12 A3022 RMK A01 T02130116  RH  054%=      5-min Rain = 0
KCL2 201633Z 06004KT 21/11 A3022 RMK A01 T02130113  RH  053%=      5-min Rain = 0
KCL2 201634Z 06005KT 21/12 A3022 RMK A01 T02130115  RH  053%=      5-min Rain = 0
KCL2 201635Z 07005KT 21/12 A3022 RMK A01 T02140117  RH  054%=      5-min Rain = 0
KCL2 201636Z 07004KT 21/12 A3022 RMK A01 T02140115  RH  053%=      5-min Rain = 0
KCL2 201637Z 03003KT 21/12 A3022 RMK A01 T02140116  RH  053%=      5-min Rain = 0
KCL2 201638Z 04004KT 21/12 A3022 RMK A01 T02140117  RH  054%=      5-min Rain = 0
KCL2 201639Z 03003KT 21/12 A3022 RMK A01 T02140118  RH  054%=      5-min Rain = 0
KCL2 201640Z 02003KT 21/12 A3022 RMK A01 T02140118  RH  054%=      5-min Rain = 0
KCL2 201641Z 05002KT 21/12 A3022 RMK A01 T02130120  RH  055%=      5-min Rain = 0
KCL2 201642Z 08002KT 22/12 A3022 RMK A01 T02150118  RH  054%=      5-min Rain = 0
KCL2 201643Z 12003KT 22/12 A3022 RMK A01 T02150118  RH  054%=      5-min Rain = 0
KCL2 201644Z 08002KT 22/12 A3022 RMK A01 T02160119  RH  054%=      5-min Rain = 0
KCL2 201645Z 05003KT 22/12 A3022 RMK A01 T02180119  RH  054%=      5-min Rain = 0
KCL2 201646Z 09004KT 22/12 A3022 RMK A01 T02190120  RH  053%=      5-min Rain = 0
KCL2 201647Z 08006KT 22/12 A3022 RMK A01 T02190116  RH  052%=      5-min Rain = 0
KCL2 201648Z 03004KT 22/12 A3021 RMK A01 T02190118  RH  052%=      5-min Rain = 0
KCL2 201649Z 06005KT 22/12 A3021 RMK A01 T02210118  RH  052%=      5-min Rain = 0
KCL2 201650Z 06005KT 22/12 A3021 RMK A01 T02220117  RH  051%=      5-min Rain = 0
KCL2 201651Z 09005KT 22/11 A3021 RMK A01 T02210114  RH  051%=      5-min Rain = 0
KCL2 201652Z 10004KT 22/12 A3021 RMK A01 T02210115  RH  051%=      5-min Rain = 0
KCL2 201653Z 08005KT 22/11 A3021 RMK A01 T02220111  RH  050%=      5-min Rain = 0
KCL2 201654Z 04006KT 22/11 A3021 RMK A01 T02230114  RH  050%=      5-min Rain = 0
KCL2 201655Z 03005KT 22/11 A3021 RMK A01 T02230113  RH  050%=      5-min Rain = 0
KCL2 201656Z 04004KT 22/12 A3021 RMK A01 T02230115  RH  050%=      5-min Rain = 0
KCL2 201657Z 06007KT 22/12 A3021 RMK A01 T02230121  RH  052%=      5-min Rain = 0
KCL2 201658Z 06006KT 23/12 A3021 RMK A01 T02250119  RH  051%=      5-min Rain = 0
KCL2 201659Z 06004KT 23/11 A3021 RMK A01 T02250114  RH  050%=      5-min Rain = 0
KCL2 201700Z 07003KT 22/11 A3021 RMK A01 T02230114  RH  050%=      5-min Rain = 0
KCL2 201701Z 05002KT 22/12 A3021 RMK A01 T02230116  RH  051%=      5-min Rain = 0
KCL2 201702Z 08005KT 22/12 A3021 RMK A01 T02240116  RH  050%=      5-min Rain = 0
KCL2 201703Z 09004KT 22/11 A3021 RMK A01 T02240112  RH  049%=      5-min Rain = 0
KCL2 201704Z 07007KT 22/11 A3021 RMK A01 T02240114  RH  050%=      5-min Rain = 0
KCL2 201705Z 08007KT 23/11 A3021 RMK A01 T02270111  RH  048%=      5-min Rain = 0
KCL2 201706Z 06004KT 23/10 A3021 RMK A01 T02270104  RH  046%=      5-min Rain = 0
KCL2 201707Z 09003KT 22/10 A3021 RMK A01 T02240102  RH  046%=      5-min Rain = 0
KCL2 201708Z 04002KT 22/11 A3021 RMK A01 T02240107  RH  047%=      5-min Rain = 0
KCL2 201709Z 03006KT 23/12 A3021 RMK A01 T02270116  RH  049%=      5-min Rain = 0
KCL2 201710Z 03005KT 23/11 A3021 RMK A01 T02300111  RH  047%=      5-min Rain = 0
KCL2 201711Z 04006KT 23/11 A3021 RMK A01 T02300114  RH  048%=      5-min Rain = 0
KCL2 201712Z 06008KT 23/11 A3021 RMK A01 T02300114  RH  048%=      5-min Rain = 0
KCL2 201713Z 07006KT 23/11 A3021 RMK A01 T02300113  RH  048%=      5-min Rain = 0
KCL2 201714Z 07006KT 23/11 A3021 RMK A01 T02300114  RH  048%=      5-min Rain = 0
KCL2 201715Z 05003KT 23/11 A3021 RMK A01 T02300108  RH  046%=      5-min Rain = 0
KCL2 201716Z 04003KT 23/11 A3021 RMK A01 T02290114  RH  048%=      5-min Rain = 0
KCL2 201717Z 04002KT 23/12 A3021 RMK A01 T02310116  RH  048%=      5-min Rain = 0
KCL2 201718Z 06004KT 23/12 A3021 RMK A01 T02320115  RH  048%=      5-min Rain = 0
KCL2 201719Z 06006KT 23/12 A302 RMK A01 T02320116  RH  048%=      5-min Rain = 0
KCL2 201720Z 06007KT 23/12 A3021 RMK A01 T02330117  RH  048%=      5-min Rain = 0
KCL2 201721Z 06006KT 23/11 A302 RMK A01 T02330112  RH  046%=      5-min Rain = 0
KCL2 201722Z 04005KT 23/11 A302 RMK A01 T02310106  RH  045%=      5-min Rain = 0
KCL2 201723Z 06004KT 23/12 A302 RMK A01 T02300116  RH  049%=      5-min Rain = 0
KCL2 201724Z 05005KT 23/12 A302 RMK A01 T02320115  RH  048%=      5-min Rain = 0
KCL2 201725Z 06005KT 23/12 A302 RMK A01 T02340120  RH  049%=      5-min Rain = 0
KCL2 201726Z 06004KT 24/12 A302 RMK A01 T02350115  RH  047%=      5-min Rain = 0
KCL2 201727Z 06005KT 24/11 A302 RMK A01 T02360114  RH  046%=      5-min Rain = 0
KCL2 201728Z 04006KT 23/11 A302 RMK A01 T02340108  RH  045%=      5-min Rain = 0
KCL2 201729Z 04005KT 24/11 A302 RMK A01 T02350113  RH  046%=      5-min Rain = 0
KCL2 201730Z 05006KT 23/11 A302 RMK A01 T02340109  RH  045%=      5-min Rain = 0
KCL2 201731Z 08005KT 23/11 A302 RMK A01 T02340114  RH  047%=      5-min Rain = 0
KCL2 201732Z 06007KT 24/11 A302 RMK A01 T02350114  RH  047%=      5-min Rain = 0
KCL2 201733Z 07006KT 24/11 A302 RMK A01 T02360113  RH  046%=      5-min Rain = 0
KCL2 201734Z 06007KT 24/11 A302 RMK A01 T02350109  RH  045%=      5-min Rain = 0
KCL2 201735Z 07008KT 23/10 A302 RMK A01 T02340102  RH  043%=      5-min Rain = 0
KCL2 201736Z 07007KT 23/10 A302 RMK A01 T02330101  RH  043%=      5-min Rain = 0
KCL2 201737Z 06007KT 23/11 A302 RMK A01 T02320105  RH  045%=      5-min Rain = 0
KCL2 201738Z 07006KT 23/11 A302 RMK A01 T02320106  RH  045%=      5-min Rain = 0
KCL2 201739Z 08005KT 23/10 A302 RMK A01 T02320104  RH  044%=      5-min Rain = 0
KCL2 201740Z 06006KT 23/11 A302 RMK A01 T02320106  RH  045%=      5-min Rain = 0
KCL2 201741Z 07009KT 23/10 A302 RMK A01 T02330104  RH  044%=      5-min Rain = 0
KCL2 201742Z 07006KT 23/10 A302 RMK A01 T02340102  RH  043%=      5-min Rain = 0
KCL2 201743Z 07008KT 23/11 A302 RMK A01 T02340108  RH  045%=      5-min Rain = 0
KCL2 201744Z 08007KT 23/11 A302 RMK A01 T02330106  RH  045%=      5-min Rain = 0
KCL2 201745Z 08007KT 23/11 A302 RMK A01 T02320105  RH  045%=      5-min Rain = 0
KCL2 201746Z 07006KT 23/11 A302 RMK A01 T02320109  RH  046%=      5-min Rain = 0
KCL2 201747Z 07004KT 23/11 A3019 RMK A01 T02320107  RH  045%=      5-min Rain = 0
KCL2 201748Z 06007KT 23/11 A3019 RMK A01 T02340114  RH  047%=      5-min Rain = 0
KCL2 201749Z 05009KT 24/10 A302 RMK A01 T02370100  RH  042%=      5-min Rain = 0
KCL2 201750Z 05010KT 24/10 A3019 RMK A01 T02380103  RH  042%=      5-min Rain = 0
KCL2 201751Z 05008KT 24/11 A3019 RMK A01 T02380106  RH  043%=      5-min Rain = 0
KCL2 201752Z 04006KT 24/10 A3019 RMK A01 T02370103  RH  043%=      5-min Rain = 0
KCL2 201753Z 03006KT 24/11 A3019 RMK A01 T02370107  RH  044%=      5-min Rain = 0
KCL2 201754Z 03007KT 24/11 A3019 RMK A01 T02390108  RH  044%=      5-min Rain = 0
KCL2 201755Z 04007KT 24/10 A3019 RMK A01 T02390104  RH  042%=      5-min Rain = 0
KCL2 201756Z 05007KT 24/11 A3019 RMK A01 T02390108  RH  044%=      5-min Rain = 0
KCL2 201757Z 07008KT 24/11 A3019 RMK A01 T02380110  RH  044%=      5-min Rain = 0
KCL2 201758Z 08008KT 24/10 A3019 RMK A01 T02380104  RH  043%=      5-min Rain = 0
KCL2 201759Z 08009KT 24/11 A3019 RMK A01 T02390108  RH  044%=      5-min Rain = 0
KCL2 201800Z 07009KT 24/11 A3019 RMK A01 T02410105  RH  042%=      5-min Rain = 0
KCL2 201801Z 07006KT 24/10 A3019 RMK A01 T02390103  RH  042%=      5-min Rain = 0
KCL2 201802Z 06003KT 24/10 A3019 RMK A01 T02360101  RH  042%=      5-min Rain = 0
KCL2 201803Z 04004KT 24/10 A3019 RMK A01 T02360102  RH  043%=      5-min Rain = 0
KCL2 201804Z 04008KT 24/10 A3019 RMK A01 T02370098  RH  041%=      5-min Rain = 0
KCL2 201805Z 05008KT 24/09 A3019 RMK A01 T02390093  RH  039%=      5-min Rain = 0
KCL2 201806Z 07007KT 24/09 A3019 RMK A01 T02410094  RH  039%=      5-min Rain = 0
KCL2 201807Z 07010KT 24/09 A3019 RMK A01 T02420089  RH  038%=      5-min Rain = 0
KCL2 201808Z 06011KT 24/09 A3019 RMK A01 T02420094  RH  039%=      5-min Rain = 0
KCL2 201809Z 07009KT 24/10 A3019 RMK A01 T02400097  RH  040%=      5-min Rain = 0
KCL2 201810Z 06008KT 24/10 A3019 RMK A01 T02410098  RH  040%=      5-min Rain = 0
KCL2 201811Z 06008KT 24/10 A3019 RMK A01 T02420096  RH  040%=      5-min Rain = 0
KCL2 201812Z 05006KT 24/09 A3019 RMK A01 T02400093  RH  039%=      5-min Rain = 0
KCL2 201813Z 07006KT 24/10 A3019 RMK A01 T02410104  RH  042%=      5-min Rain = 0
KCL2 201814Z 07009KT 24/09 A3019 RMK A01 T02430093  RH  039%=      5-min Rain = 0
KCL2 201815Z 07011KT 24/09 A3019 RMK A01 T02430091  RH  038%=      5-min Rain = 0
KCL2 201816Z 08009KT 24/09 A3019 RMK A01 T02420091  RH  038%=      5-min Rain = 0
KCL2 201817Z 07010KT 24/08 A3019 RMK A01 T02410084  RH  037%=      5-min Rain = 0
KCL2 201818Z 07009KT 24/09 A3019 RMK A01 T02400089  RH  038%=      5-min Rain = 0
KCL2 201819Z 08007KT 24/08 A3019 RMK A01 T02400083  RH  037%=      5-min Rain = 0
KCL2 201820Z 09007KT 24/09 A3019 RMK A01 T02410089  RH  038%=      5-min Rain = 0
KCL2 201821Z 08007KT 24/10 A3019 RMK A01 T02420098  RH  040%=      5-min Rain = 0
KCL2 201822Z 06008KT 24/10 A3018 RMK A01 T02430098  RH  040%=      5-min Rain = 0
KCL2 201823Z 05008KT 24/10 A3018 RMK A01 T02430098  RH  040%=      5-min Rain = 0
KCL2 201824Z 06006KT 24/10 A3018 RMK A01 T02420098  RH  040%=      5-min Rain = 0
KCL2 201825Z 07006KT 24/10 A3018 RMK A01 T02430097  RH  040%=      5-min Rain = 0
KCL2 201826Z 09006KT 24/10 A3018 RMK A01 T02440095  RH  039%=      5-min Rain = 0
KCL2 201827Z 08006KT 24/09 A3018 RMK A01 T02430091  RH  038%=      5-min Rain = 0
KCL2 201828Z 08007KT 24/10 A3018 RMK A01 T02410097  RH  040%=      5-min Rain = 0
KCL2 201829Z 07008KT 24/10 A3018 RMK A01 T02440102  RH  041%=      5-min Rain = 0
KCL2 201830Z 06009KT 25/09 A3018 RMK A01 T02460089  RH  037%=      5-min Rain = 0
KCL2 201831Z 06013KT 25/09 A3018 RMK A01 T02460087  RH  036%=      5-min Rain = 0
KCL2 201832Z 06011KT 25/08 A3018 RMK A01 T02470084  RH  035%=      5-min Rain = 0
KCL2 201833Z 06009KT 24/09 A3018 RMK A01 T02440085  RH  036%=      5-min Rain = 0
KCL2 201834Z 06009KT 25/09 A3018 RMK A01 T02450094  RH  038%=      5-min Rain = 0
KCL2 201835Z 06009KT 25/09 A3018 RMK A01 T02470087  RH  036%=      5-min Rain = 0
KCL2 201836Z 06009G14KT 25/09 A3018 RMK A01 T02460088  RH  037%=      5-min Rain = 0
KCL2 201837Z 08007KT 25/09 A3018 RMK A01 T02460086  RH  036%=      5-min Rain = 0
KCL2 201838Z 07008KT 25/09 A3018 RMK A01 T02470085  RH  036%=      5-min Rain = 0
KCL2 201839Z 07006KT 25/09 A3018 RMK A01 T02450088  RH  037%=      5-min Rain = 0
KCL2 201840Z 08008KT 25/09 A3018 RMK A01 T02450091  RH  038%=      5-min Rain = 0
KCL2 201841Z 06008KT 24/09 A3018 RMK A01 T02440091  RH  038%=      5-min Rain = 0
KCL2 201842Z 07006KT 24/09 A3018 RMK A01 T02430092  RH  038%=      5-min Rain = 0
KCL2 201843Z 07006KT 24/09 A3018 RMK A01 T02420090  RH  038%=      5-min Rain = 0
KCL2 201844Z 06007KT 24/09 A3018 RMK A01 T02410092  RH  039%=      5-min Rain = 0
KCL2 201845Z 06010KT 24/10 A3018 RMK A01 T02420099  RH  040%=      5-min Rain = 0
KCL2 201846Z 06008KT 25/10 A3018 RMK A01 T02450097  RH  039%=      5-min Rain = 0
KCL2 201847Z 05008KT 24/10 A3017 RMK A01 T02440098  RH  040%=      5-min Rain = 0
KCL2 201848Z 04007KT 24/10 A3018 RMK A01 T02430101  RH  041%=      5-min Rain = 0
KCL2 201849Z 03006KT 24/10 A3017 RMK A01 T02440102  RH  041%=      5-min Rain = 0
KCL2 201850Z 04004KT 24/11 A3017 RMK A01 T02440106  RH  042%=      5-min Rain = 0
KCL2 201851Z 10005KT 25/11 A3017 RMK A01 T02470110  RH  042%=      5-min Rain = 0
KCL2 201852Z 08008KT 25/11 A3017 RMK A01 T02490105  RH  040%=      5-min Rain = 0
KCL2 201853Z 07010KT 25/10 A3017 RMK A01 T02490099  RH  039%=      5-min Rain = 0
KCL2 201854Z 08009KT 25/10 A3017 RMK A01 T02470096  RH  038%=      5-min Rain = 0
KCL2 201855Z 08008KT 25/10 A3017 RMK A01 T02460097  RH  039%=      5-min Rain = 0
KCL2 201856Z 08008KT 25/10 A3017 RMK A01 T02470099  RH  039%=      5-min Rain = 0
KCL2 201857Z 06008KT 25/10 A3017 RMK A01 T02470100  RH  039%=      5-min Rain = 0
KCL2 201858Z 05011KT 25/10 A3017 RMK A01 T02470098  RH  039%=      5-min Rain = 0
KCL2 201859Z 05010KT 25/10 A3017 RMK A01 T02470098  RH  039%=      5-min Rain = 0
KCL2 201900Z 06007KT 25/10 A3017 RMK A01 T02470102  RH  040%=      5-min Rain = 0
KCL2 201901Z 05010KT 25/10 A3017 RMK A01 T02470100  RH  039%=      5-min Rain = 0
KCL2 201902Z 04008KT 25/10 A3017 RMK A01 T02460100  RH  040%=      5-min Rain = 0
KCL2 201903Z 05008KT 25/10 A3017 RMK A01 T02460104  RH  041%=      5-min Rain = 0
KCL2 201904Z 07007KT 25/10 A3017 RMK A01 T02470098  RH  039%=      5-min Rain = 0
KCL2 201905Z 07007KT 25/10 A3017 RMK A01 T02470103  RH  040%=      5-min Rain = 0
KCL2 201906Z 10008KT 25/11 A3017 RMK A01 T02490106  RH  041%=      5-min Rain = 0
KCL2 201907Z 08006KT 25/10 A3017 RMK A01 T02500102  RH  039%=      5-min Rain = 0
KCL2 201908Z 07006KT 25/10 A3017 RMK A01 T02480103  RH  040%=      5-min Rain = 0
KCL2 201909Z 06011KT 25/11 A3017 RMK A01 T02480107  RH  041%=      5-min Rain = 0
KCL2 201910Z 06010KT 25/10 A3017 RMK A01 T02510099  RH  038%=      5-min Rain = 0
KCL2 201911Z 06010KT 25/10 A3017 RMK A01 T02500102  RH  039%=      5-min Rain = 0
KCL2 201912Z 05011KT 25/11 A3016 RMK A01 T02500107  RH  041%=      5-min Rain = 0
KCL2 201913Z 07007KT 25/11 A3016 RMK A01 T02500106  RH  040%=      5-min Rain = 0
KCL2 201914Z 05008KT 25/10 A3016 RMK A01 T02500101  RH  039%=      5-min Rain = 0
KCL2 201915Z 04009KT 25/10 A3016 RMK A01 T02510103  RH  039%=      5-min Rain = 0
KCL2 201916Z 05009KT 25/10 A3016 RMK A01 T02520101  RH  039%=      5-min Rain = 0
KCL2 201917Z 06012KT 25/10 A3016 RMK A01 T02530104  RH  039%=      5-min Rain = 0
KCL2 201918Z 07010KT 25/10 A3016 RMK A01 T02510103  RH  039%=      5-min Rain = 0
KCL2 201919Z 07009KT 25/10 A3016 RMK A01 T02510102  RH  039%=      5-min Rain = 0
KCL2 201920Z 07006KT 25/10 A3016 RMK A01 T02480097  RH  038%=      5-min Rain = 0
KCL2 201921Z 06009KT 25/10 A3016 RMK A01 T02460100  RH  040%=      5-min Rain = 0
KCL2 201922Z 06008KT 25/10 A3016 RMK A01 T02470100  RH  039%=      5-min Rain = 0
KCL2 201923Z 07009KT 25/10 A3016 RMK A01 T02480097  RH  038%=      5-min Rain = 0
KCL2 201924Z 07010KT 25/09 A3016 RMK A01 T02500087  RH  036%=      5-min Rain = 0
KCL2 201925Z 06009KT 25/09 A3016 RMK A01 T02510092  RH  036%=      5-min Rain = 0
KCL2 201926Z 06009G15KT 25/09 A3016 RMK A01 T02510094  RH  037%=      5-min Rain = 0
KCL2 201927Z 07012KT 25/09 A3016 RMK A01 T02520093  RH  036%=      5-min Rain = 0
KCL2 201928Z 07011KT 25/09 A3016 RMK A01 T02520089  RH  036%=      5-min Rain = 0
KCL2 201929Z 07010KT 25/09 A3016 RMK A01 T02500089  RH  036%=      5-min Rain = 0
KCL2 201930Z 08007KT 25/09 A3016 RMK A01 T02480085  RH  036%=      5-min Rain = 0
KCL2 201931Z 07008KT 25/09 A3016 RMK A01 T02470092  RH  037%=      5-min Rain = 0
KCL2 201932Z 08005KT 25/09 A3016 RMK A01 T02480087  RH  036%=      5-min Rain = 0
KCL2 201933Z 07005KT 25/09 A3016 RMK A01 T02470094  RH  038%=      5-min Rain = 0
KCL2 201934Z 07008KT 25/10 A3016 RMK A01 T02500101  RH  039%=      5-min Rain = 0
KCL2 201935Z 07009KT 25/10 A3016 RMK A01 T02540098  RH  037%=      5-min Rain = 0
KCL2 201936Z 04007KT 25/10 A3015 RMK A01 T02530103  RH  039%=      5-min Rain = 0
KCL2 201937Z 04004KT 25/11 A3015 RMK A01 T02530107  RH  040%=      5-min Rain = 0
KCL2 201938Z 06004KT 25/10 A3015 RMK A01 T02540103  RH  039%=      5-min Rain = 0
KCL2 201939Z 08004KT 25/10 A3015 RMK A01 T02540103  RH  038%=      5-min Rain = 0
KCL2 201940Z 08006KT 26/10 A3015 RMK A01 T02550103  RH  038%=      5-min Rain = 0
KCL2 201941Z 08008KT 26/10 A3015 RMK A01 T02550101  RH  038%=      5-min Rain = 0
KCL2 201942Z 08007KT 25/10 A3015 RMK A01 T02520099  RH  038%=      5-min Rain = 0
KCL2 201943Z 06008KT 25/11 A3015 RMK A01 T02510105  RH  040%=      5-min Rain = 0
KCL2 201944Z 06008KT 26/11 A3015 RMK A01 T02550107  RH  040%=      5-min Rain = 0
KCL2 201945Z 06007KT 26/10 A3015 RMK A01 T02560104  RH  038%=      5-min Rain = 0
KCL2 201946Z 05005KT 26/11 A3015 RMK A01 T02570109  RH  039%=      5-min Rain = 0
KCL2 201947Z 09007KT 26/11 A3015 RMK A01 T02580105  RH  038%=      5-min Rain = 0
KCL2 201948Z 09009KT 26/10 A3015 RMK A01 T02570101  RH  038%=      5-min Rain = 0
KCL2 201949Z 08010KT 25/10 A3015 RMK A01 T02540102  RH  038%=      5-min Rain = 0
KCL2 201950Z 05009KT 25/10 A3015 RMK A01 T02530104  RH  039%=      5-min Rain = 0
KCL2 201951Z 06010KT 25/11 A3015 RMK A01 T02540106  RH  039%=      5-min Rain = 0
KCL2 201952Z 07009KT 26/11 A3015 RMK A01 T02560108  RH  039%=      5-min Rain = 0
KCL2 201953Z 07008KT 26/11 A3015 RMK A01 T02560107  RH  039%=      5-min Rain = 0
KCL2 201954Z 05006KT 26/10 A3015 RMK A01 T02560104  RH  038%=      5-min Rain = 0
KCL2 201955Z 04006KT 25/10 A3015 RMK A01 T02540102  RH  038%=      5-min Rain = 0
KCL2 201956Z 03007KT 25/11 A3015 RMK A01 T02520106  RH  040%=      5-min Rain = 0
KCL2 201957Z 07011KT 25/11 A3015 RMK A01 T02530105  RH  039%=      5-min Rain = 0
KCL2 201958Z 07010KT 25/10 A3015 RMK A01 T02520101  RH  038%=      5-min Rain = 0
KCL2 201959Z 07007KT 25/10 A3015 RMK A01 T02510101  RH  039%=      5-min Rain = 0
KCL2 202000Z 06007KT 25/10 A3015 RMK A01 T02500104  RH  040%=      5-min Rain = 0
KCL2 202001Z 06003KT 25/10 A3015 RMK A01 T02500103  RH  040%=      5-min Rain = 0
KCL2 202002Z 06004KT 25/10 A3015 RMK A01 T02500102  RH  039%=      5-min Rain = 0
KCL2 202003Z 06007KT 25/11 A3015 RMK A01 T02520106  RH  040%=      5-min Rain = 0
KCL2 202004Z 06008KT 25/10 A3015 RMK A01 T02520102  RH  039%=      5-min Rain = 0
KCL2 202005Z 05009KT 25/10 A3015 RMK A01 T02520103  RH  039%=      5-min Rain = 0
KCL2 202006Z 06014KT 25/10 A3014 RMK A01 T02520104  RH  039%=      5-min Rain = 0
KCL2 202007Z 06012KT 25/11 A3015 RMK A01 T02530107  RH  040%=      5-min Rain = 0
KCL2 202008Z 06009KT 25/11 A3014 RMK A01 T02540106  RH  039%=      5-min Rain = 0
KCL2 202009Z 06008KT 25/11 A3014 RMK A01 T02540113  RH  041%=      5-min Rain = 0
KCL2 202010Z 06008KT 26/11 A3014 RMK A01 T02560111  RH  040%=      5-min Rain = 0
KCL2 202011Z 06006KT 26/11 A3014 RMK A01 T02570106  RH  039%=      5-min Rain = 0
KCL2 202012Z 07005KT 26/10 A3014 RMK A01 T02560104  RH  038%=      5-min Rain = 0
KCL2 202013Z 05006KT 26/11 A3014 RMK A01 T02550110  RH  040%=      5-min Rain = 0
KCL2 202014Z 04004KT 26/10 A3014 RMK A01 T02550102  RH  038%=      5-min Rain = 0
KCL2 202015Z 04008KT 25/11 A3014 RMK A01 T02540113  RH  041%=      5-min Rain = 0
KCL2 202016Z 05011KT 26/11 A3014 RMK A01 T02570106  RH  039%=      5-min Rain = 0
KCL2 202017Z 06008KT 26/10 A3014 RMK A01 T02570104  RH  038%=      5-min Rain = 0
KCL2 202018Z 06011KT 26/11 A3014 RMK A01 T02580111  RH  040%=      5-min Rain = 0
KCL2 202019Z 06011KT 26/10 A3014 RMK A01 T02600103  RH  037%=      5-min Rain = 0
KCL2 202020Z 08009KT 26/10 A3014 RMK A01 T02590102  RH  037%=      5-min Rain = 0
KCL2 202021Z 07009KT 26/10 A3014 RMK A01 T02590096  RH  036%=      5-min Rain = 0
KCL2 202022Z 06011KT 26/10 A3014 RMK A01 T02570096  RH  036%=      5-min Rain = 0
KCL2 202023Z 06010KT 26/10 A3014 RMK A01 T02550100  RH  037%=      5-min Rain = 0
KCL2 202024Z 05009KT 25/10 A3014 RMK A01 T02540103  RH  039%=      5-min Rain = 0
KCL2 202025Z 05009KT 26/11 A3014 RMK A01 T02550106  RH  039%=      5-min Rain = 0
KCL2 202026Z 05009KT 26/10 A3014 RMK A01 T02570104  RH  038%=      5-min Rain = 0
KCL2 202027Z 06008KT 26/11 A3014 RMK A01 T02580107  RH  039%=      5-min Rain = 0
KCL2 202028Z 07010KT 26/10 A3014 RMK A01 T02590103  RH  038%=      5-min Rain = 0
KCL2 202029Z 05008KT 26/11 A3014 RMK A01 T02570105  RH  038%=      5-min Rain = 0
KCL2 202030Z 04005KT 26/10 A3014 RMK A01 T02560103  RH  038%=      5-min Rain = 0
KCL2 202031Z 03003KT 26/11 A3014 RMK A01 T02560107  RH  039%=      5-min Rain = 0
KCL2 202032Z 04003KT 26/10 A3014 RMK A01 T02570101  RH  038%=      5-min Rain = 0
KCL2 202033Z 06003KT 26/11 A3014 RMK A01 T02560106  RH  039%=      5-min Rain = 0
KCL2 202034Z 06005KT 26/11 A3014 RMK A01 T02570105  RH  038%=      5-min Rain = 0
KCL2 202035Z 07004KT 26/11 A3014 RMK A01 T02570107  RH  039%=      5-min Rain = 0
KCL2 202036Z 06008KT 26/11 A3014 RMK A01 T02580107  RH  039%=      5-min Rain = 0
KCL2 202037Z 05007KT 26/10 A3014 RMK A01 T02600101  RH  037%=      5-min Rain = 0
KCL2 202038Z 06007KT 26/10 A3014 RMK A01 T02610100  RH  036%=      5-min Rain = 0
KCL2 202039Z 06008KT 26/10 A3014 RMK A01 T02610103  RH  037%=      5-min Rain = 0
KCL2 202040Z 08007KT 26/11 A3014 RMK A01 T02600105  RH  038%=      5-min Rain = 0
KCL2 202041Z 07005KT 26/10 A3014 RMK A01 T02600103  RH  037%=      5-min Rain = 0
KCL2 202042Z 03008KT 26/11 A3013 RMK A01 T02580107  RH  039%=      5-min Rain = 0
KCL2 202043Z 03008KT 26/11 A3014 RMK A01 T02580105  RH  038%=      5-min Rain = 0
KCL2 202044Z 04007KT 26/10 A3013 RMK A01 T02570101  RH  037%=      5-min Rain = 0
KCL2 202045Z 06008KT 26/10 A3013 RMK A01 T02570104  RH  038%=      5-min Rain = 0
KCL2 202046Z 08010KT 26/10 A3013 RMK A01 T02590097  RH  036%=      5-min Rain = 0
KCL2 202047Z 07008KT 26/10 A3014 RMK A01 T02580096  RH  036%=      5-min Rain = 0
KCL2 202048Z 07006KT 26/10 A3013 RMK A01 T02570098  RH  037%=      5-min Rain = 0
KCL2 202049Z 08008KT 26/10 A3013 RMK A01 T02570102  RH  037%=      5-min Rain = 0
KCL2 202050Z 09008KT 26/10 A3013 RMK A01 T02580097  RH  036%=      5-min Rain = 0
KCL2 202051Z 09008KT 26/10 A3013 RMK A01 T02570098  RH  037%=      5-min Rain = 0
KCL2 202052Z 08006KT 26/10 A3013 RMK A01 T02570101  RH  037%=      5-min Rain = 0
KCL2 202053Z 09007KT 26/10 A3013 RMK A01 T02550104  RH  039%=      5-min Rain = 0
KCL2 202054Z 10009KT 26/11 A3013 RMK A01 T02550105  RH  039%=      5-min Rain = 0
KCL2 202055Z 10009KT 26/10 A3013 RMK A01 T02560099  RH  037%=      5-min Rain = 0
KCL2 202056Z 08009KT 26/10 A3013 RMK A01 T02560099  RH  037%=      5-min Rain = 0
KCL2 202057Z 08010KT 26/10 A3013 RMK A01 T02570099  RH  037%=      5-min Rain = 0
KCL2 202058Z 07008KT 26/10 A3013 RMK A01 T02570096  RH  036%=      5-min Rain = 0
KCL2 202059Z 07009KT 26/10 A3013 RMK A01 T02570103  RH  038%=      5-min Rain = 0
KCL2 202100Z 06008KT 26/10 A3013 RMK A01 T02580101  RH  037%=      5-min Rain = 0
KCL2 202101Z 08009KT 26/10 A3013 RMK A01 T02580101  RH  037%=      5-min Rain = 0
KCL2 202102Z 09011KT 26/10 A3013 RMK A01 T02580102  RH  038%=      5-min Rain = 0
KCL2 202103Z 09007KT 26/10 A3013 RMK A01 T02570103  RH  038%=      5-min Rain = 0
KCL2 202104Z 09006KT 26/10 A3013 RMK A01 T02580103  RH  038%=      5-min Rain = 0
KCL2 202105Z 07007KT 26/10 A3013 RMK A01 T02580103  RH  038%=      5-min Rain = 0
KCL2 202106Z 04008KT 26/10 A3013 RMK A01 T02580104  RH  038%=      5-min Rain = 0
KCL2 202107Z 03007KT 26/11 A3013 RMK A01 T02590106  RH  038%=      5-min Rain = 0
KCL2 202108Z 04006KT 26/10 A3013 RMK A01 T02590102  RH  037%=      5-min Rain = 0
KCL2 202109Z 03009KT 26/11 A3013 RMK A01 T02590105  RH  038%=      5-min Rain = 0
KCL2 202110Z 03008KT 26/11 A3013 RMK A01 T02600107  RH  038%=      5-min Rain = 0
KCL2 202111Z 05007KT 26/11 A3013 RMK A01 T02610112  RH  039%=      5-min Rain = 0
KCL2 202112Z 05009KT 26/11 A3013 RMK A01 T02630108  RH  038%=      5-min Rain = 0
KCL2 202113Z 08009KT 26/10 A3013 RMK A01 T02620103  RH  037%=      5-min Rain = 0
KCL2 202114Z 07006KT 26/10 A3013 RMK A01 T02600102  RH  037%=      5-min Rain = 0
KCL2 202115Z 06005KT 26/10 A3013 RMK A01 T02590104  RH  038%=      5-min Rain = 0
KCL2 202116Z 07006KT 26/11 A3013 RMK A01 T02590105  RH  038%=      5-min Rain = 0
KCL2 202117Z 06007KT 26/10 A3013 RMK A01 T02600099  RH  036%=      5-min Rain = 0
KCL2 202118Z 05009KT 26/10 A3013 RMK A01 T02590099  RH  036%=      5-min Rain = 0
KCL2 202119Z 06009KT 26/10 A3013 RMK A01 T02590100  RH  037%=      5-min Rain = 0
KCL2 202120Z 06007KT 26/10 A3013 RMK A01 T02600096  RH  036%=      5-min Rain = 0
KCL2 202121Z 07010KT 26/10 A3013 RMK A01 T02600096  RH  035%=      5-min Rain = 0
KCL2 202122Z 07008KT 26/09 A3013 RMK A01 T02600090  RH  034%=      5-min Rain = 0
KCL2 202123Z 07008KT 26/09 A3013 RMK A01 T02580086  RH  034%=      5-min Rain = 0
KCL2 202124Z 07007KT 26/08 A3013 RMK A01 T02570083  RH  033%=      5-min Rain = 0
KCL2 202125Z 04008KT 26/09 A3013 RMK A01 T02560090  RH  035%=      5-min Rain = 0
KCL2 202126Z 04009KT 26/09 A3013 RMK A01 T02570091  RH  035%=      5-min Rain = 0
KCL2 202127Z 06010KT 26/09 A3013 RMK A01 T02580090  RH  035%=      5-min Rain = 0
KCL2 202128Z 05011KT 26/09 A3013 RMK A01 T02580087  RH  034%=      5-min Rain = 0
KCL2 202129Z 05008KT 26/09 A3013 RMK A01 T02580085  RH  033%=      5-min Rain = 0
KCL2 202130Z 06007KT 26/09 A3013 RMK A01 T02580088  RH  034%=      5-min Rain = 0
KCL2 202131Z 07006KT 26/09 A3012 RMK A01 T02580088  RH  034%=      5-min Rain = 0
KCL2 202132Z 08004G9KT 26/09 A3013 RMK A01 T02590091  RH  035%=      5-min Rain = 0
KCL2 202133Z 06010KT 26/10 A3013 RMK A01 T02620100  RH  036%=      5-min Rain = 0
KCL2 202134Z 07010KT 26/10 A3013 RMK A01 T02630095  RH  035%=      5-min Rain = 0
KCL2 202135Z 07009KT 26/09 A3013 RMK A01 T02600092  RH  035%=      5-min Rain = 0
KCL2 202136Z 07008KT 26/09 A3013 RMK A01 T02580092  RH  035%=      5-min Rain = 0
KCL2 202137Z 07006KT 26/09 A3012 RMK A01 T02570092  RH  035%=      5-min Rain = 0
KCL2 202138Z 08007KT 26/10 A3012 RMK A01 T02580095  RH  036%=      5-min Rain = 0
KCL2 202139Z 07009KT 26/10 A3012 RMK A01 T02580096  RH  036%=      5-min Rain = 0
KCL2 202140Z 08007KT 26/10 A3012 RMK A01 T02580097  RH  036%=      5-min Rain = 0
KCL2 202141Z 09007KT 26/10 A3012 RMK A01 T02590096  RH  036%=      5-min Rain = 0
KCL2 202142Z 06007KT 26/10 A3012 RMK A01 T02580097  RH  036%=      5-min Rain = 0
KCL2 202143Z 08009KT 26/10 A3012 RMK A01 T02580098  RH  036%=      5-min Rain = 0
KCL2 202144Z 10008KT 26/10 A3012 RMK A01 T02580099  RH  037%=      5-min Rain = 0
KCL2 202145Z 08010KT 26/10 A3012 RMK A01 T02580098  RH  036%=      5-min Rain = 0
KCL2 202146Z 09011KT 26/09 A3012 RMK A01 T02580094  RH  035%=      5-min Rain = 0
KCL2 202147Z 09009KT 26/09 A3012 RMK A01 T02570088  RH  034%=      5-min Rain = 0
KCL2 202148Z 08008KT 26/09 A3012 RMK A01 T02560092  RH  035%=      5-min Rain = 0
KCL2 202149Z 09006KT 26/09 A3012 RMK A01 T02560091  RH  035%=      5-min Rain = 0
KCL2 202150Z 08005KT 26/10 A3012 RMK A01 T02570096  RH  036%=      5-min Rain = 0
KCL2 202151Z 07011KT 26/09 A3012 RMK A01 T02590092  RH  035%=      5-min Rain = 0
KCL2 202152Z 07012KT 26/08 A3012 RMK A01 T02590084  RH  033%=      5-min Rain = 0
KCL2 202153Z 07010KT 26/08 A3012 RMK A01 T02600079  RH  032%=      5-min Rain = 0
KCL2 202154Z 08009KT 26/08 A3012 RMK A01 T02590081  RH  032%=      5-min Rain = 0
KCL2 202155Z 08009KT 26/08 A3012 RMK A01 T02580082  RH  033%=      5-min Rain = 0
KCL2 202156Z 08007KT 26/09 A3012 RMK A01 T02570087  RH  034%=      5-min Rain = 0
KCL2 202157Z 06006KT 26/09 A3012 RMK A01 T02570092  RH  035%=      5-min Rain = 0
KCL2 202158Z 06009KT 26/09 A3012 RMK A01 T02600089  RH  034%=      5-min Rain = 0
KCL2 202159Z 07010KT 26/08 A3012 RMK A01 T02600080  RH  032%=      5-min Rain = 0
KCL2 202200Z 06007KT 26/08 A3012 RMK A01 T02580082  RH  033%=      5-min Rain = 0
KCL2 202201Z 05007KT 26/08 A3012 RMK A01 T02580082  RH  033%=      5-min Rain = 0
KCL2 202202Z 05009KT 26/09 A3012 RMK A01 T02580085  RH  033%=      5-min Rain = 0
KCL2 202203Z 04009KT 26/09 A3012 RMK A01 T02570088  RH  034%=      5-min Rain = 0
KCL2 202204Z 05007KT 26/09 A3012 RMK A01 T02570086  RH  034%=      5-min Rain = 0
KCL2 202205Z 03007KT 26/09 A3012 RMK A01 T02570089  RH  035%=      5-min Rain = 0
KCL2 202206Z 07007KT 26/09 A3012 RMK A01 T02570088  RH  034%=      5-min Rain = 0
KCL2 202207Z 09008G13KT 26/09 A3012 RMK A01 T02580086  RH  034%=      5-min Rain = 0
KCL2 202208Z 09008KT 26/09 A3012 RMK A01 T02580085  RH  033%=      5-min Rain = 0
KCL2 202209Z 08007KT 26/09 A3012 RMK A01 T02570087  RH  034%=      5-min Rain = 0
KCL2 202210Z 09007KT 26/09 A3012 RMK A01 T02560089  RH  035%=      5-min Rain = 0
KCL2 202211Z 07008KT 26/09 A3012 RMK A01 T02570089  RH  034%=      5-min Rain = 0
KCL2 202212Z 07008KT 26/09 A3012 RMK A01 T02570092  RH  035%=      5-min Rain = 0
KCL2 202213Z 09007KT 26/09 A3012 RMK A01 T02570091  RH  035%=      5-min Rain = 0
KCL2 202214Z 07008KT 26/09 A3012 RMK A01 T02570092  RH  035%=      5-min Rain = 0
KCL2 202215Z 07006KT 26/09 A3012 RMK A01 T02560092  RH  035%=      5-min Rain = 0
KCL2 202216Z 09007KT 26/09 A3012 RMK A01 T02560093  RH  036%=      5-min Rain = 0
KCL2 202217Z 07008KT 26/09 A3012 RMK A01 T02560093  RH  036%=      5-min Rain = 0
KCL2 202218Z 09009KT 26/09 A3012 RMK A01 T02560093  RH  035%=      5-min Rain = 0
KCL2 202219Z 09008KT 26/09 A3012 RMK A01 T02560092  RH  035%=      5-min Rain = 0
KCL2 202220Z 10007KT 26/09 A3012 RMK A01 T02560094  RH  036%=      5-min Rain = 0
KCL2 202221Z 08008KT 26/09 A3012 RMK A01 T02560092  RH  035%=      5-min Rain = 0
KCL2 202222Z 08008KT 26/09 A3012 RMK A01 T02560087  RH  034%=      5-min Rain = 0
KCL2 202223Z 06010KT 26/09 A3012 RMK A01 T02560089  RH  035%=      5-min Rain = 0
KCL2 202224Z 06008KT 26/09 A3012 RMK A01 T02560087  RH  034%=      5-min Rain = 0
KCL2 202225Z 10007KT 26/09 A3012 RMK A01 T02560093  RH  036%=      5-min Rain = 0
KCL2 202226Z 09006KT 26/09 A3012 RMK A01 T02570092  RH  035%=      5-min Rain = 0
KCL2 202227Z 07008KT 26/10 A3012 RMK A01 T02570095  RH  036%=      5-min Rain = 0
KCL2 202228Z 08006KT 26/09 A3012 RMK A01 T02580086  RH  034%=      5-min Rain = 0
KCL2 202229Z 07008KT 26/09 A3012 RMK A01 T02570091  RH  035%=      5-min Rain = 0
KCL2 202230Z 05009KT 26/09 A3012 RMK A01 T02560094  RH  036%=      5-min Rain = 0
KCL2 202231Z 06009KT 26/09 A3012 RMK A01 T02560091  RH  035%=      5-min Rain = 0
KCL2 202232Z 06008KT 26/09 A3012 RMK A01 T02560092  RH  036%=      5-min Rain = 0
KCL2 202233Z 05011KT 26/09 A3012 RMK A01 T02550092  RH  036%=      5-min Rain = 0
KCL2 202234Z 05010KT 26/10 A3012 RMK A01 T02550097  RH  037%=      5-min Rain = 0
KCL2 202235Z 05010KT 26/09 A3012 RMK A01 T02550094  RH  036%=      5-min Rain = 0
KCL2 202236Z 07008KT 26/10 A3012 RMK A01 T02550096  RH  037%=      5-min Rain = 0
KCL2 202237Z 06009KT 26/10 A3012 RMK A01 T02550095  RH  036%=      5-min Rain = 0
KCL2 202238Z 07009KT 25/10 A3012 RMK A01 T02540096  RH  037%=      5-min Rain = 0
KCL2 202239Z 06008KT 25/10 A3012 RMK A01 T02530096  RH  037%=      5-min Rain = 0
KCL2 202240Z 07008KT 25/10 A3012 RMK A01 T02530098  RH  038%=      5-min Rain = 0
KCL2 202241Z 08008KT 25/10 A3012 RMK A01 T02530097  RH  037%=      5-min Rain = 0
KCL2 202242Z 07008KT 25/10 A3012 RMK A01 T02530097  RH  037%=      5-min Rain = 0
KCL2 202243Z 06008KT 25/10 A3012 RMK A01 T02530096  RH  037%=      5-min Rain = 0
KCL2 202244Z 06009KT 25/10 A3012 RMK A01 T02530097  RH  037%=      5-min Rain = 0
KCL2 202245Z 04009KT 25/09 A3012 RMK A01 T02530094  RH  037%=      5-min Rain = 0
KCL2 202246Z 05009KT 25/10 A3012 RMK A01 T02530096  RH  037%=      5-min Rain = 0
KCL2 202247Z 06010KT 25/10 A3012 RMK A01 T02530099  RH  038%=      5-min Rain = 0
KCL2 202248Z 07008KT 25/10 A3012 RMK A01 T02530096  RH  037%=      5-min Rain = 0
KCL2 202249Z 08006KT 25/09 A3012 RMK A01 T02530094  RH  036%=      5-min Rain = 0
KCL2 202250Z 08008KT 25/10 A3012 RMK A01 T02540095  RH  037%=      5-min Rain = 0
KCL2 202251Z 07009KT 25/09 A3012 RMK A01 T02530092  RH  036%=      5-min Rain = 0
KCL2 202252Z 06010KT 25/09 A3012 RMK A01 T02540094  RH  036%=      5-min Rain = 0
KCL2 202253Z 07009KT 25/09 A3012 RMK A01 T02530091  RH  036%=      5-min Rain = 0
KCL2 202254Z 06009KT 25/09 A3012 RMK A01 T02530094  RH  037%=      5-min Rain = 0
KCL2 202255Z 07008KT 25/10 A3012 RMK A01 T02530095  RH  037%=      5-min Rain = 0
KCL2 202256Z 07008KT 25/09 A3012 RMK A01 T02530093  RH  036%=      5-min Rain = 0
KCL2 202257Z 05009KT 25/09 A3012 RMK A01 T02530093  RH  036%=      5-min Rain = 0
KCL2 202258Z 05008KT 25/10 A3012 RMK A01 T02530095  RH  037%=      5-min Rain = 0
KCL2 202259Z 07008KT 25/10 A3012 RMK A01 T02520098  RH  038%=      5-min Rain = 0
KCL2 202300Z 07010KT 25/09 A3012 RMK A01 T02520094  RH  037%=      5-min Rain = 0
KCL2 202301Z 07007KT 25/09 A3012 RMK A01 T02510091  RH  036%=      5-min Rain = 0
KCL2 202302Z 06008KT 25/09 A3012 RMK A01 T02500092  RH  037%=      5-min Rain = 0
KCL2 202303Z 07006KT 25/09 A3012 RMK A01 T02500091  RH  037%=      5-min Rain = 0
KCL2 202304Z 07008KT 25/09 A3012 RMK A01 T02500089  RH  036%=      5-min Rain = 0
KCL2 202305Z 06009KT 25/09 A3012 RMK A01 T02500087  RH  036%=      5-min Rain = 0
KCL2 202306Z 06008KT 25/09 A3012 RMK A01 T02500090  RH  036%=      5-min Rain = 0
KCL2 202307Z 05009KT 25/09 A3012 RMK A01 T02490092  RH  037%=      5-min Rain = 0
KCL2 202308Z 06009KT 25/09 A3012 RMK A01 T02490090  RH  036%=      5-min Rain = 0
KCL2 202309Z 06008KT 25/09 A3012 RMK A01 T02490092  RH  037%=      5-min Rain = 0
KCL2 202310Z 07008G13KT 25/09 A3012 RMK A01 T02500093  RH  037%=      5-min Rain = 0
KCL2 202311Z 06012KT 25/09 A3012 RMK A01 T02490094  RH  037%=      5-min Rain = 0
KCL2 202312Z 06010KT 25/09 A3012 RMK A01 T02490093  RH  037%=      5-min Rain = 0
KCL2 202313Z 06011KT 25/10 A3012 RMK A01 T02480095  RH  038%=      5-min Rain = 0
KCL2 202314Z 06010KT 25/10 A3012 RMK A01 T02480095  RH  038%=      5-min Rain = 0
KCL2 202315Z 06009KT 25/10 A3012 RMK A01 T02480097  RH  038%=      5-min Rain = 0
KCL2 202316Z 06008KT 25/10 A3012 RMK A01 T02480097  RH  038%=      5-min Rain = 0
KCL2 202317Z 06007KT 25/10 A3012 RMK A01 T02480097  RH  038%=      5-min Rain = 0
KCL2 202318Z 07007KT 25/10 A3012 RMK A01 T02480096  RH  038%=      5-min Rain = 0
KCL2 202319Z 06007KT 25/10 A3012 RMK A01 T02480097  RH  039%=      5-min Rain = 0
KCL2 202320Z 04009KT 25/10 A3012 RMK A01 T02470096  RH  038%=      5-min Rain = 0
KCL2 202321Z 04009KT 25/09 A3012 RMK A01 T02470094  RH  038%=      5-min Rain = 0
KCL2 202322Z 04009KT 25/09 A3012 RMK A01 T02460093  RH  038%=      5-min Rain = 0
KCL2 202323Z 05010KT 25/09 A3012 RMK A01 T02450093  RH  038%=      5-min Rain = 0
KCL2 202324Z 07010KT 25/09 A3012 RMK A01 T02450094  RH  038%=      5-min Rain = 0
KCL2 202325Z 06010KT 25/09 A3012 RMK A01 T02450093  RH  038%=      5-min Rain = 0
KCL2 202326Z 06010KT 25/09 A3012 RMK A01 T02450094  RH  038%=      5-min Rain = 0
KCL2 202327Z 07009KT 25/10 A3012 RMK A01 T02450095  RH  039%=      5-min Rain = 0
KCL2 202328Z 07009KT 25/10 A3012 RMK A01 T02450097  RH  039%=      5-min Rain = 0
KCL2 202329Z 06009KT 25/10 A3012 RMK A01 T02450098  RH  039%=      5-min Rain = 0
KCL2 202330Z 07009KT 25/10 A3012 RMK A01 T02450097  RH  039%=      5-min Rain = 0
KCL2 202331Z 06008KT 24/10 A3012 RMK A01 T02440096  RH  039%=      5-min Rain = 0
KCL2 202332Z 07008KT 24/10 A3013 RMK A01 T02440097  RH  039%=      5-min Rain = 0
KCL2 202333Z 07008KT 24/10 A3012 RMK A01 T02440095  RH  039%=      5-min Rain = 0
KCL2 202334Z 06008KT 24/10 A3012 RMK A01 T02440096  RH  039%=      5-min Rain = 0
KCL2 202335Z 07008KT 24/10 A3012 RMK A01 T02440095  RH  039%=      5-min Rain = 0
KCL2 202336Z 07007KT 24/10 A3012 RMK A01 T02430095  RH  039%=      5-min Rain = 0
KCL2 202337Z 08007KT 24/10 A3012 RMK A01 T02430095  RH  039%=      5-min Rain = 0
KCL2 202338Z 07008KT 24/09 A3013 RMK A01 T02430094  RH  039%=      5-min Rain = 0
KCL2 202339Z 07008KT 24/09 A3013 RMK A01 T02430093  RH  039%=      5-min Rain = 0
KCL2 202340Z 06009KT 24/10 A3013 RMK A01 T02430095  RH  039%=      5-min Rain = 0
KCL2 202341Z 06008KT 24/09 A3013 RMK A01 T02420094  RH  039%=      5-min Rain = 0
KCL2 202342Z 06008KT 24/10 A3013 RMK A01 T02420096  RH  040%=      5-min Rain = 0
KCL2 202343Z 06007KT 24/10 A3013 RMK A01 T02410095  RH  040%=      5-min Rain = 0
KCL2 202344Z 06007KT 24/10 A3013 RMK A01 T02410097  RH  040%=      5-min Rain = 0
KCL2 202345Z 06009KT 24/09 A3013 RMK A01 T02400094  RH  039%=      5-min Rain = 0
KCL2 202346Z 06010KT 24/09 A3013 RMK A01 T02400092  RH  039%=      5-min Rain = 0
KCL2 202347Z 07009KT 24/09 A3013 RMK A01 T02400093  RH  039%=      5-min Rain = 0
KCL2 202348Z 07010KT 24/09 A3013 RMK A01 T02390093  RH  040%=      5-min Rain = 0
KCL2 202349Z 07009KT 24/09 A3013 RMK A01 T02380093  RH  040%=      5-min Rain = 0
KCL2 202350Z 06009KT 24/09 A3013 RMK A01 T02380093  RH  040%=      5-min Rain = 0
KCL2 202351Z 06008KT 24/09 A3013 RMK A01 T02380094  RH  040%=      5-min Rain = 0
KCL2 202352Z 07008KT 24/10 A3013 RMK A01 T02380095  RH  040%=      5-min Rain = 0
KCL2 202353Z 06007KT 24/10 A3013 RMK A01 T02380095  RH  040%=      5-min Rain = 0
KCL2 202354Z 07006KT 24/10 A3013 RMK A01 T02370096  RH  041%=      5-min Rain = 0
KCL2 202355Z 06006KT 24/10 A3013 RMK A01 T02360096  RH  041%=      5-min Rain = 0
KCL2 202356Z 07007KT 24/10 A3013 RMK A01 T02360096  RH  041%=      5-min Rain = 0
KCL2 202357Z 06006KT 24/10 A3013 RMK A01 T02360096  RH  041%=      5-min Rain = 0
KCL2 202358Z 07006KT 24/10 A3013 RMK A01 T02350098  RH  042%=      5-min Rain = 0
KCL2 202359Z 07005KT 23/10 A3013 RMK A01 T02340098  RH  042%=      5-min Rain = 0
KCL2 210000Z 06006KT 23/10 A3013 RMK A01 T02330098  RH  042%=      5-min Rain = 0
KCL2 210001Z 06007KT 23/10 A3013 RMK A01 T02330098  RH  042%=      5-min Rain = 0
KCL2 210002Z 06006KT 23/10 A3013 RMK A01 T02330097  RH  042%=      5-min Rain = 0
KCL2 210003Z 07007KT 23/10 A3013 RMK A01 T02320099  RH  043%=      5-min Rain = 0
KCL2 210004Z 07006KT 23/10 A3013 RMK A01 T02320098  RH  043%=      5-min Rain = 0
KCL2 210005Z 07006KT 23/10 A3013 RMK A01 T02320099  RH  043%=      5-min Rain = 0
KCL2 210006Z 07006KT 23/10 A3013 RMK A01 T02310100  RH  043%=      5-min Rain = 0
KCL2 210007Z 06007KT 23/10 A3013 RMK A01 T02300101  RH  044%=      5-min Rain = 0
KCL2 210008Z 06006KT 23/10 A3013 RMK A01 T02290099  RH  044%=      5-min Rain = 0
KCL2 210009Z 06007KT 23/10 A3013 RMK A01 T02290099  RH  044%=      5-min Rain = 0
KCL2 210010Z 06006KT 23/10 A3013 RMK A01 T02290099  RH  044%=      5-min Rain = 0
KCL2 210011Z 06007KT 23/10 A3013 RMK A01 T02290100  RH  044%=      5-min Rain = 0
KCL2 210012Z 06007KT 23/10 A3013 RMK A01 T02280100  RH  044%=      5-min Rain = 0
KCL2 210013Z 06006KT 23/10 A3013 RMK A01 T02270100  RH  044%=      5-min Rain = 0
KCL2 210014Z 06006KT 23/10 A3013 RMK A01 T02270101  RH  045%=      5-min Rain = 0
KCL2 210015Z 07006KT 23/10 A3013 RMK A01 T02260100  RH  045%=      5-min Rain = 0
KCL2 210016Z 06007KT 23/10 A3013 RMK A01 T02260100  RH  045%=      5-min Rain = 0
KCL2 210017Z 06007KT 23/10 A3013 RMK A01 T02260100  RH  045%=      5-min Rain = 0
KCL2 210018Z 06007KT 23/10 A3013 RMK A01 T02260100  RH  045%=      5-min Rain = 0
KCL2 210019Z 06006KT 23/10 A3013 RMK A01 T02260101  RH  045%=      5-min Rain = 0
KCL2 210020Z 06006KT 22/10 A3013 RMK A01 T02240101  RH  046%=      5-min Rain = 0
KCL2 210021Z 06006KT 22/10 A3013 RMK A01 T02230101  RH  046%=      5-min Rain = 0
KCL2 210022Z 07007KT 22/10 A3013 RMK A01 T02220101  RH  046%=      5-min Rain = 0
KCL2 210023Z 07007KT 22/10 A3013 RMK A01 T02220100  RH  046%=      5-min Rain = 0
KCL2 210024Z 07007KT 22/10 A3013 RMK A01 T02230101  RH  046%=      5-min Rain = 0
KCL2 210025Z 07006KT 22/10 A3013 RMK A01 T02230100  RH  046%=      5-min Rain = 0
KCL2 210026Z 07006KT 22/10 A3013 RMK A01 T02230102  RH  046%=      5-min Rain = 0
KCL2 210027Z 07007KT 22/10 A3013 RMK A01 T02220101  RH  046%=      5-min Rain = 0
KCL2 210028Z 07007KT 22/10 A3013 RMK A01 T02220100  RH  046%=      5-min Rain = 0
KCL2 210029Z 07006KT 22/10 A3013 RMK A01 T02230100  RH  046%=      5-min Rain = 0
KCL2 210030Z 07006KT 22/10 A3013 RMK A01 T02230102  RH  046%=      5-min Rain = 0
KCL2 210031Z 07006KT 22/10 A3013 RMK A01 T02220101  RH  046%=      5-min Rain = 0
KCL2 210032Z 07007KT 22/10 A3013 RMK A01 T02220101  RH  046%=      5-min Rain = 0
KCL2 210033Z 07007KT 22/10 A3013 RMK A01 T02220100  RH  046%=      5-min Rain = 0
KCL2 210034Z 07006KT 22/10 A3013 RMK A01 T02220100  RH  046%=      5-min Rain = 0
KCL2 210035Z 07006KT 22/10 A3013 RMK A01 T02210102  RH  047%=      5-min Rain = 0
KCL2 210036Z 07006KT 22/10 A3013 RMK A01 T02200101  RH  047%=      5-min Rain = 0
KCL2 210037Z 07006KT 22/10 A3013 RMK A01 T02200102  RH  047%=      5-min Rain = 0
KCL2 210038Z 07007KT 22/10 A3013 RMK A01 T02180101  RH  047%=      5-min Rain = 0
KCL2 210039Z 07006KT 22/10 A3013 RMK A01 T02180101  RH  047%=      5-min Rain = 0
KCL2 210040Z 07006KT 22/10 A3013 RMK A01 T02180102  RH  048%=      5-min Rain = 0
KCL2 210041Z 07005KT 22/10 A3013 RMK A01 T02170102  RH  048%=      5-min Rain = 0
KCL2 210042Z 07005KT 22/10 A3013 RMK A01 T02170102  RH  048%=      5-min Rain = 0
KCL2 210043Z 07006KT 22/10 A3013 RMK A01 T02150102  RH  048%=      5-min Rain = 0
KCL2 210044Z 07005KT 22/10 A3013 RMK A01 T02150101  RH  048%=      5-min Rain = 0
KCL2 210045Z 07005KT 22/10 A3013 RMK A01 T02150102  RH  048%=      5-min Rain = 0
KCL2 210046Z 07005KT 22/10 A3013 RMK A01 T02150102  RH  048%=      5-min Rain = 0
KCL2 210047Z 08005KT 21/10 A3013 RMK A01 T02140102  RH  049%=      5-min Rain = 0
KCL2 210048Z 07006KT 21/10 A3013 RMK A01 T02140102  RH  049%=      5-min Rain = 0
KCL2 210049Z 07005KT 21/10 A3013 RMK A01 T02140102  RH  049%=      5-min Rain = 0
KCL2 210050Z 07007KT 21/10 A3013 RMK A01 T02130102  RH  049%=      5-min Rain = 0
KCL2 210051Z 07006KT 21/10 A3013 RMK A01 T02130101  RH  049%=      5-min Rain = 0
KCL2 210052Z 07006KT 21/10 A3013 RMK A01 T02130102  RH  049%=      5-min Rain = 0
KCL2 210053Z 07006KT 21/10 A3013 RMK A01 T02130102  RH  049%=      5-min Rain = 0
KCL2 210054Z 07006KT 21/10 A3013 RMK A01 T02120102  RH  049%=      5-min Rain = 0
KCL2 210055Z 07006KT 21/10 A3013 RMK A01 T02120101  RH  049%=      5-min Rain = 0
KCL2 210056Z 07007KT 21/10 A3013 RMK A01 T02130102  RH  049%=      5-min Rain = 0
KCL2 210057Z 07006KT 21/10 A3013 RMK A01 T02130102  RH  049%=      5-min Rain = 0
KCL2 210058Z 07006KT 21/10 A3013 RMK A01 T02120102  RH  049%=      5-min Rain = 0
KCL2 210059Z 07006KT 21/10 A3013 RMK A01 T02120103  RH  050%=      5-min Rain = 0
KCL2 210100Z 07006KT 21/10 A3013 RMK A01 T02110102  RH  050%=      5-min Rain = 0
KCL2 210101Z 07007KT 21/10 A3013 RMK A01 T02110101  RH  049%=      5-min Rain = 0
KCL2 210102Z 07007KT 21/10 A3013 RMK A01 T02120101  RH  049%=      5-min Rain = 0
KCL2 210103Z 08006KT 21/10 A3013 RMK A01 T02120102  RH  049%=      5-min Rain = 0
KCL2 210104Z 07007KT 21/10 A3013 RMK A01 T02110102  RH  050%=      5-min Rain = 0
KCL2 210105Z 07006KT 21/10 A3013 RMK A01 T02100102  RH  050%=      5-min Rain = 0
KCL2 210106Z 07006KT 21/10 A3013 RMK A01 T02090102  RH  050%=      5-min Rain = 0
KCL2 210107Z 07006KT 21/10 A3013 RMK A01 T02100102  RH  050%=      5-min Rain = 0
KCL2 210108Z 07006KT 21/10 A3013 RMK A01 T02090102  RH  050%=      5-min Rain = 0
KCL2 210109Z 08006KT 21/10 A3013 RMK A01 T02090102  RH  050%=      5-min Rain = 0
KCL2 210110Z 07005KT 21/10 A3013 RMK A01 T02090103  RH  051%=      5-min Rain = 0
KCL2 210111Z 07006KT 21/10 A3013 RMK A01 T02080103  RH  051%=      5-min Rain = 0
KCL2 210112Z 07006KT 21/10 A3013 RMK A01 T02070102  RH  051%=      5-min Rain = 0
KCL2 210113Z 07007KT 21/10 A3013 RMK A01 T02080102  RH  051%=      5-min Rain = 0
KCL2 210114Z 08006KT 21/10 A3013 RMK A01 T02070102  RH  051%=      5-min Rain = 0
KCL2 210115Z 07008KT 21/10 A3013 RMK A01 T02070102  RH  051%=      5-min Rain = 0
KCL2 210116Z 08008KT 21/10 A3013 RMK A01 T02080102  RH  050%=      5-min Rain = 0
KCL2 210117Z 07007KT 21/10 A3013 RMK A01 T02080102  RH  050%=      5-min Rain = 0
KCL2 210118Z 08007KT 21/10 A3013 RMK A01 T02080101  RH  050%=      5-min Rain = 0
KCL2 210119Z 07007KT 21/10 A3013 RMK A01 T02080102  RH  051%=      5-min Rain = 0
KCL2 210120Z 08008KT 21/10 A3013 RMK A01 T02070102  RH  051%=      5-min Rain = 0
KCL2 210121Z 08007KT 21/10 A3013 RMK A01 T02070103  RH  051%=      5-min Rain = 0
KCL2 210122Z 07007KT 21/10 A3013 RMK A01 T02060103  RH  052%=      5-min Rain = 0
KCL2 210123Z 08008KT 21/10 A3013 RMK A01 T02050102  RH  051%=      5-min Rain = 0
KCL2 210124Z 08007KT 21/10 A3013 RMK A01 T02050102  RH  051%=      5-min Rain = 0
KCL2 210125Z 08007KT 21/10 A3013 RMK A01 T02050101  RH  051%=      5-min Rain = 0
KCL2 210126Z 08007KT 21/10 A3013 RMK A01 T02060102  RH  051%=      5-min Rain = 0
KCL2 210127Z 07007KT 20/10 A3013 RMK A01 T02040102  RH  052%=      5-min Rain = 0
KCL2 210128Z 08007KT 20/10 A3013 RMK A01 T02040102  RH  052%=      5-min Rain = 0
KCL2 210129Z 07007KT 20/10 A3013 RMK A01 T02040102  RH  052%=      5-min Rain = 0
KCL2 210130Z 08007KT 20/10 A3014 RMK A01 T02030102  RH  052%=      5-min Rain = 0
KCL2 210131Z 08008KT 20/10 A3013 RMK A01 T02030102  RH  052%=      5-min Rain = 0
KCL2 210132Z 08007KT 20/10 A3014 RMK A01 T02030101  RH  052%=      5-min Rain = 0
KCL2 210133Z 08007KT 20/10 A3014 RMK A01 T02040101  RH  052%=      5-min Rain = 0
KCL2 210134Z 07008KT 20/10 A3014 RMK A01 T02040102  RH  052%=      5-min Rain = 0
KCL2 210135Z 07008KT 20/10 A3014 RMK A01 T02040102  RH  052%=      5-min Rain = 0
KCL2 210136Z 08008KT 20/10 A3014 RMK A01 T02040101  RH  052%=      5-min Rain = 0
KCL2 210137Z 07007KT 20/10 A3014 RMK A01 T02040102  RH  052%=      5-min Rain = 0
KCL2 210138Z 07008KT 20/10 A3014 RMK A01 T02040102  RH  052%=      5-min Rain = 0
KCL2 210139Z 07009KT 20/10 A3014 RMK A01 T02040103  RH  052%=      5-min Rain = 0
KCL2 210140Z 07009KT 20/10 A3014 RMK A01 T02030102  RH  052%=      5-min Rain = 0
KCL2 210141Z 07008KT 20/10 A3014 RMK A01 T02040102  RH  052%=      5-min Rain = 0
KCL2 210142Z 08008KT 20/10 A3014 RMK A01 T02040102  RH  052%=      5-min Rain = 0
KCL2 210143Z 07008KT 20/10 A3014 RMK A01 T02030102  RH  052%=      5-min Rain = 0
KCL2 210144Z 07007KT 20/10 A3014 RMK A01 T02040102  RH  052%=      5-min Rain = 0
KCL2 210145Z 08007KT 20/10 A3014 RMK A01 T02030102  RH  052%=      5-min Rain = 0
KCL2 210146Z 08007KT 20/10 A3014 RMK A01 T02020102  RH  053%=      5-min Rain = 0
KCL2 210147Z 08008KT 20/10 A3014 RMK A01 T02020102  RH  053%=      5-min Rain = 0
KCL2 210148Z 07007KT 20/10 A3014 RMK A01 T02020103  RH  053%=      5-min Rain = 0
KCL2 210149Z 08008KT 20/10 A3014 RMK A01 T02010102  RH  053%=      5-min Rain = 0
KCL2 210150Z 08007KT 20/10 A3014 RMK A01 T02010102  RH  053%=      5-min Rain = 0
KCL2 210151Z 08008KT 20/10 A3014 RMK A01 T02010102  RH  053%=      5-min Rain = 0
KCL2 210152Z 08008KT 20/10 A3014 RMK A01 T02010102  RH  053%=      5-min Rain = 0
KCL2 210153Z 08009KT 20/10 A3014 RMK A01 T02010102  RH  053%=      5-min Rain = 0
KCL2 210154Z 08008KT 20/10 A3014 RMK A01 T02000102  RH  053%=      5-min Rain = 0
KCL2 210155Z 08008KT 20/10 A3014 RMK A01 T02000102  RH  053%=      5-min Rain = 0
KCL2 210156Z 08008KT 20/10 A3014 RMK A01 T02000102  RH  053%=      5-min Rain = 0
KCL2 210157Z 08008KT 20/10 A3014 RMK A01 T02000102  RH  053%=      5-min Rain = 0
KCL2 210158Z 08008KT 20/10 A3014 RMK A01 T01990103  RH  054%=      5-min Rain = 0
KCL2 210159Z 08008KT 20/10 A3014 RMK A01 T01980103  RH  054%=      5-min Rain = 0
KCL2 210200Z 08007KT 20/10 A3014 RMK A01 T01970103  RH  055%=      5-min Rain = 0
KCL2 210201Z 08008KT 20/10 A3014 RMK A01 T01960103  RH  055%=      5-min Rain = 0
KCL2 210202Z 08007KT 19/10 A3014 RMK A01 T01940103  RH  056%=      5-min Rain = 0
KCL2 210203Z 08007KT 19/10 A3014 RMK A01 T01930103  RH  056%=      5-min Rain = 0
KCL2 210204Z 08008KT 19/10 A3014 RMK A01 T01940102  RH  055%=      5-min Rain = 0
KCL2 210205Z 08008KT 20/10 A3014 RMK A01 T01950102  RH  055%=      5-min Rain = 0
KCL2 210206Z 08007KT 20/10 A3014 RMK A01 T01960102  RH  055%=      5-min Rain = 0
KCL2 210207Z 08008KT 20/10 A3014 RMK A01 T01960102  RH  055%=      5-min Rain = 0
KCL2 210208Z 08007KT 20/10 A3014 RMK A01 T01960102  RH  055%=      5-min Rain = 0
KCL2 210209Z 08008KT 20/10 A3014 RMK A01 T01950102  RH  055%=      5-min Rain = 0
KCL2 210210Z 08007KT 20/10 A3014 RMK A01 T01950102  RH  055%=      5-min Rain = 0
KCL2 210211Z 08008KT 20/10 A3014 RMK A01 T01950103  RH  055%=      5-min Rain = 0
KCL2 210212Z 08008KT 19/10 A3014 RMK A01 T01940102  RH  055%=      5-min Rain = 0
KCL2 210213Z 08007KT 20/10 A3014 RMK A01 T01950102  RH  055%=      5-min Rain = 0
KCL2 210214Z 08007KT 20/10 A3014 RMK A01 T01950102  RH  055%=      5-min Rain = 0
KCL2 210215Z 08006KT 20/10 A3014 RMK A01 T01950102  RH  055%=      5-min Rain = 0
KCL2 210216Z 07006KT 19/10 A3014 RMK A01 T01940102  RH  055%=      5-min Rain = 0
KCL2 210217Z 08007KT 19/10 A3014 RMK A01 T01930102  RH  055%=      5-min Rain = 0
KCL2 210218Z 08006KT 19/10 A3014 RMK A01 T01930102  RH  056%=      5-min Rain = 0
KCL2 210219Z 08007KT 19/10 A3014 RMK A01 T01930102  RH  056%=      5-min Rain = 0
KCL2 210220Z 08007KT 19/10 A3014 RMK A01 T01930102  RH  056%=      5-min Rain = 0
KCL2 210221Z 08007KT 19/10 A3015 RMK A01 T01920102  RH  056%=      5-min Rain = 0
KCL2 210222Z 08007KT 19/10 A3015 RMK A01 T01930102  RH  055%=      5-min Rain = 0
KCL2 210223Z 08006KT 19/10 A3015 RMK A01 T01930102  RH  056%=      5-min Rain = 0
KCL2 210224Z 08007KT 19/10 A3015 RMK A01 T01920102  RH  056%=      5-min Rain = 0
KCL2 210225Z 08006KT 19/10 A3015 RMK A01 T01920102  RH  056%=      5-min Rain = 0
KCL2 210226Z 08007KT 19/10 A3014 RMK A01 T01910102  RH  056%=      5-min Rain = 0
KCL2 210227Z 08007KT 19/10 A3015 RMK A01 T01910102  RH  056%=      5-min Rain = 0
KCL2 210228Z 08007KT 19/10 A3015 RMK A01 T01910102  RH  056%=      5-min Rain = 0
KCL2 210229Z 08007KT 19/10 A3015 RMK A01 T01910101  RH  056%=      5-min Rain = 0
KCL2 210230Z 08007KT 19/10 A3015 RMK A01 T01910101  RH  056%=      5-min Rain = 0
KCL2 210231Z 08007KT 19/10 A3015 RMK A01 T01910102  RH  056%=      5-min Rain = 0
KCL2 210232Z 08007KT 19/10 A3015 RMK A01 T01910102  RH  056%=      5-min Rain = 0
KCL2 210233Z 08008KT 19/10 A3015 RMK A01 T01900102  RH  056%=      5-min Rain = 0
KCL2 210234Z 08007KT 19/10 A3015 RMK A01 T01890102  RH  057%=      5-min Rain = 0
KCL2 210235Z 08008KT 19/10 A3015 RMK A01 T01890102  RH  057%=      5-min Rain = 0
KCL2 210236Z 08007KT 19/10 A3015 RMK A01 T01880102  RH  057%=      5-min Rain = 0
KCL2 210237Z 08007KT 19/10 A3015 RMK A01 T01880102  RH  057%=      5-min Rain = 0
KCL2 210238Z 08008KT 19/10 A3015 RMK A01 T01880102  RH  058%=      5-min Rain = 0
KCL2 210239Z 08007KT 19/10 A3015 RMK A01 T01870102  RH  058%=      5-min Rain = 0
KCL2 210240Z 08007KT 19/10 A3015 RMK A01 T01870102  RH  058%=      5-min Rain = 0
KCL2 210241Z 08008KT 19/10 A3015 RMK A01 T01860101  RH  058%=      5-min Rain = 0
KCL2 210242Z 09008KT 19/10 A3015 RMK A01 T01860101  RH  058%=      5-min Rain = 0
KCL2 210243Z 08008KT 19/10 A3015 RMK A01 T01870101  RH  058%=      5-min Rain = 0
KCL2 210244Z 09007KT 19/10 A3015 RMK A01 T01870101  RH  058%=      5-min Rain = 0
KCL2 210245Z 09007KT 19/10 A3015 RMK A01 T01860102  RH  058%=      5-min Rain = 0
KCL2 210246Z 08007KT 19/10 A3015 RMK A01 T01860102  RH  058%=      5-min Rain = 0
KCL2 210247Z 09007KT 19/10 A3015 RMK A01 T01850101  RH  058%=      5-min Rain = 0
KCL2 210248Z 09007KT 19/10 A3015 RMK A01 T01850101  RH  058%=      5-min Rain = 0
KCL2 210249Z 09006KT 19/10 A3015 RMK A01 T01850102  RH  058%=      5-min Rain = 0
KCL2 210250Z 09007KT 18/10 A3015 RMK A01 T01840102  RH  059%=      5-min Rain = 0
KCL2 210251Z 09007KT 18/10 A3015 RMK A01 T01840101  RH  058%=      5-min Rain = 0
KCL2 210252Z 08006KT 18/10 A3015 RMK A01 T01840100  RH  058%=      5-min Rain = 0
KCL2 210253Z 08007KT 19/10 A3015 RMK A01 T01850101  RH  058%=      5-min Rain = 0
KCL2 210254Z 08008KT 19/10 A3015 RMK A01 T01850100  RH  058%=      5-min Rain = 0
KCL2 210255Z 09007KT 19/10 A3015 RMK A01 T01860099  RH  057%=      5-min Rain = 0
KCL2 210256Z 09007KT 19/10 A3015 RMK A01 T01870101  RH  057%=      5-min Rain = 0
KCL2 210257Z 08007KT 19/10 A3015 RMK A01 T01860100  RH  058%=      5-min Rain = 0
KCL2 210258Z 08007KT 19/10 A3015 RMK A01 T01850101  RH  058%=      5-min Rain = 0
KCL2 210259Z 09007KT 19/10 A3015 RMK A01 T01850101  RH  058%=      5-min Rain = 0
KCL2 210300Z 08007KT 18/10 A3015 RMK A01 T01840100  RH  058%=      5-min Rain = 0
KCL2 210301Z 08007KT 18/10 A3015 RMK A01 T01840101  RH  058%=      5-min Rain = 0
KCL2 210302Z 08007KT 18/10 A3015 RMK A01 T01840101  RH  058%=      5-min Rain = 0
KCL2 210303Z 09007KT 18/10 A3015 RMK A01 T01830101  RH  059%=      5-min Rain = 0
KCL2 210304Z 09007KT 18/10 A3015 RMK A01 T01830101  RH  059%=      5-min Rain = 0
KCL2 210305Z 09007KT 18/10 A3015 RMK A01 T01820101  RH  059%=      5-min Rain = 0
KCL2 210306Z 09006KT 18/10 A3015 RMK A01 T01820101  RH  059%=      5-min Rain = 0
KCL2 210307Z 09007KT 18/10 A3015 RMK A01 T01810101  RH  059%=      5-min Rain = 0
KCL2 210308Z 09006KT 18/10 A3015 RMK A01 T01810102  RH  060%=      5-min Rain = 0
KCL2 210309Z 09006KT 18/10 A3015 RMK A01 T01790101  RH  060%=      5-min Rain = 0
KCL2 210310Z 09006KT 18/10 A3015 RMK A01 T01790101  RH  060%=      5-min Rain = 0
KCL2 210311Z 09007KT 18/10 A3015 RMK A01 T01790101  RH  060%=      5-min Rain = 0
KCL2 210312Z 09006KT 18/10 A3015 RMK A01 T01790101  RH  060%=      5-min Rain = 0
KCL2 210313Z 09006KT 18/10 A3015 RMK A01 T01790101  RH  060%=      5-min Rain = 0
KCL2 210314Z 09006KT 18/10 A3015 RMK A01 T01790101  RH  060%=      5-min Rain = 0
KCL2 210315Z 09007KT 18/10 A3015 RMK A01 T01780101  RH  060%=      5-min Rain = 0
KCL2 210316Z 10006KT 18/10 A3015 RMK A01 T01780101  RH  060%=      5-min Rain = 0
KCL2 210317Z 09006KT 18/10 A3015 RMK A01 T01780100  RH  060%=      5-min Rain = 0
KCL2 210318Z 10005KT 18/10 A3015 RMK A01 T01780100  RH  060%=      5-min Rain = 0
KCL2 210319Z 10005KT 18/10 A3015 RMK A01 T01780100  RH  060%=      5-min Rain = 0
KCL2 210320Z 10006KT 18/10 A3015 RMK A01 T01780100  RH  060%=      5-min Rain = 0
KCL2 210321Z 10006KT 18/10 A3015 RMK A01 T01780100  RH  061%=      5-min Rain = 0
KCL2 210322Z 09006KT 18/10 A3015 RMK A01 T01770100  RH  061%=      5-min Rain = 0
KCL2 210323Z 09006KT 18/10 A3015 RMK A01 T01770100  RH  061%=      5-min Rain = 0
KCL2 210324Z 10006KT 18/10 A3015 RMK A01 T01770101  RH  061%=      5-min Rain = 0
KCL2 210325Z 09007KT 18/10 A3015 RMK A01 T01770101  RH  061%=      5-min Rain = 0
KCL2 210326Z 10007KT 18/10 A3015 RMK A01 T01760101  RH  061%=      5-min Rain = 0
KCL2 210327Z 10007KT 18/10 A3016 RMK A01 T01760101  RH  061%=      5-min Rain = 0
KCL2 210328Z 10007KT 18/10 A3016 RMK A01 T01760101  RH  061%=      5-min Rain = 0
KCL2 210329Z 10007KT 18/10 A3016 RMK A01 T01750101  RH  062%=      5-min Rain = 0
KCL2 210330Z 10007KT 18/10 A3016 RMK A01 T01750101  RH  062%=      5-min Rain = 0
KCL2 210331Z 10007KT 18/10 A3016 RMK A01 T01750101  RH  062%=      5-min Rain = 0
KCL2 210332Z 10007KT 18/10 A3016 RMK A01 T01760101  RH  061%=      5-min Rain = 0
KCL2 210333Z 10008KT 18/10 A3015 RMK A01 T01760100  RH  061%=      5-min Rain = 0
KCL2 210334Z 10007KT 18/10 A3015 RMK A01 T01760100  RH  061%=      5-min Rain = 0
KCL2 210335Z 10008KT 18/10 A3015 RMK A01 T01770101  RH  061%=      5-min Rain = 0
KCL2 210336Z 10008KT 18/10 A3015 RMK A01 T01760101  RH  061%=      5-min Rain = 0
KCL2 210337Z 10007KT 18/10 A3015 RMK A01 T01760101  RH  061%=      5-min Rain = 0
KCL2 210338Z 10008KT 18/10 A3015 RMK A01 T01760101  RH  061%=      5-min Rain = 0
KCL2 210339Z 10009KT 18/10 A3015 RMK A01 T01760101  RH  061%=      5-min Rain = 0
KCL2 210340Z 10009KT 18/10 A3015 RMK A01 T01760101  RH  061%=      5-min Rain = 0
KCL2 210341Z 10010KT 18/10 A3015 RMK A01 T01760101  RH  061%=      5-min Rain = 0
KCL2 210342Z 10008KT 18/10 A3015 RMK A01 T01760100  RH  061%=      5-min Rain = 0
KCL2 210343Z 10008KT 18/10 A3015 RMK A01 T01770101  RH  061%=      5-min Rain = 0
KCL2 210344Z 10008KT 18/10 A3015 RMK A01 T01770100  RH  061%=      5-min Rain = 0
KCL2 210345Z 10007KT 18/10 A3015 RMK A01 T01770101  RH  061%=      5-min Rain = 0
KCL2 210346Z 10007KT 18/10 A3015 RMK A01 T01770101  RH  061%=      5-min Rain = 0
KCL2 210347Z 10008KT 18/10 A3015 RMK A01 T01760100  RH  061%=      5-min Rain = 0
KCL2 210348Z 10009KT 18/10 A3015 RMK A01 T01760100  RH  061%=      5-min Rain = 0
KCL2 210349Z 10009KT 18/10 A3015 RMK A01 T01770100  RH  061%=      5-min Rain = 0
KCL2 210350Z 10008KT 18/10 A3015 RMK A01 T01770101  RH  061%=      5-min Rain = 0
KCL2 210351Z 10008KT 18/10 A3015 RMK A01 T01770101  RH  061%=      5-min Rain = 0
KCL2 210352Z 10008KT 18/10 A3015 RMK A01 T01770101  RH  061%=      5-min Rain = 0
KCL2 210353Z 10009KT 18/10 A3015 RMK A01 T01770101  RH  061%=      5-min Rain = 0
KCL2 210354Z 10007KT 18/10 A3016 RMK A01 T01770101  RH  061%=      5-min Rain = 0
KCL2 210355Z 11008KT 18/10 A3016 RMK A01 T01770101  RH  061%=      5-min Rain = 0
KCL2 210356Z 11009KT 18/10 A3015 RMK A01 T01760101  RH  061%=      5-min Rain = 0
KCL2 210357Z 10008KT 18/10 A3016 RMK A01 T01770101  RH  061%=      5-min Rain = 0
KCL2 210358Z 10008KT 18/10 A3016 RMK A01 T01770101  RH  061%=      5-min Rain = 0
KCL2 210359Z 10009KT 18/10 A3015 RMK A01 T01760102  RH  061%=      5-min Rain = 0
KCL2 210400Z 10009KT 18/10 A3015 RMK A01 T01760101  RH  062%=      5-min Rain = 0
KCL2 210401Z 10007KT 18/10 A3016 RMK A01 T01770102  RH  061%=      5-min Rain = 0
KCL2 210402Z 11007KT 18/10 A3016 RMK A01 T01760101  RH  061%=      5-min Rain = 0
KCL2 210403Z 10007KT 18/10 A3015 RMK A01 T01760102  RH  062%=      5-min Rain = 0
KCL2 210404Z 11008KT 18/10 A3015 RMK A01 T01760102  RH  062%=      5-min Rain = 0
KCL2 210405Z 11008KT 18/10 A3016 RMK A01 T01760102  RH  062%=      5-min Rain = 0
KCL2 210406Z 11008KT 18/10 A3016 RMK A01 T01750102  RH  062%=      5-min Rain = 0
KCL2 210407Z 11006KT 18/10 A3016 RMK A01 T01750102  RH  062%=      5-min Rain = 0
KCL2 210408Z 11006KT 17/10 A3016 RMK A01 T01740103  RH  063%=      5-min Rain = 0
KCL2 210409Z 11007KT 17/10 A3016 RMK A01 T01730103  RH  063%=      5-min Rain = 0
KCL2 210410Z 11007KT 17/10 A3016 RMK A01 T01720103  RH  064%=      5-min Rain = 0
KCL2 210411Z 11007KT 17/10 A3016 RMK A01 T01720103  RH  064%=      5-min Rain = 0
KCL2 210412Z 11008KT 17/10 A3016 RMK A01 T01720102  RH  064%=      5-min Rain = 0
KCL2 210413Z 10008KT 17/10 A3016 RMK A01 T01720102  RH  063%=      5-min Rain = 0
KCL2 210414Z 11007KT 17/10 A3016 RMK A01 T01730103  RH  063%=      5-min Rain = 0
KCL2 210415Z 10007KT 17/10 A3016 RMK A01 T01730102  RH  063%=      5-min Rain = 0
KCL2 210416Z 10007KT 17/10 A3016 RMK A01 T01730103  RH  063%=      5-min Rain = 0
KCL2 210417Z 10007KT 17/10 A3016 RMK A01 T01730103  RH  063%=      5-min Rain = 0
KCL2 210418Z 10007KT 17/10 A3016 RMK A01 T01730103  RH  063%=      5-min Rain = 0
KCL2 210419Z 10006KT 17/10 A3016 RMK A01 T01730103  RH  064%=      5-min Rain = 0
KCL2 210420Z 10007KT 17/10 A3016 RMK A01 T01720103  RH  064%=      5-min Rain = 0
KCL2 210421Z 10007KT 17/10 A3016 RMK A01 T01720103  RH  064%=      5-min Rain = 0
KCL2 210422Z 10007KT 17/10 A3016 RMK A01 T01720103  RH  064%=      5-min Rain = 0
KCL2 210423Z 10007KT 17/10 A3016 RMK A01 T01720103  RH  064%=      5-min Rain = 0
KCL2 210424Z 11007KT 17/10 A3016 RMK A01 T01720103  RH  064%=      5-min Rain = 0
KCL2 210425Z 10007KT 17/10 A3016 RMK A01 T01730103  RH  064%=      5-min Rain = 0
KCL2 210426Z 10006KT 17/10 A3016 RMK A01 T01720103  RH  064%=      5-min Rain = 0
KCL2 210427Z 10006KT 17/10 A3016 RMK A01 T01720103  RH  064%=      5-min Rain = 0
KCL2 210428Z 10006KT 17/10 A3016 RMK A01 T01720104  RH  064%=      5-min Rain = 0
KCL2 210429Z 10007KT 17/10 A3016 RMK A01 T01700103  RH  065%=      5-min Rain = 0
KCL2 210430Z 10006KT 17/10 A3016 RMK A01 T01700103  RH  065%=      5-min Rain = 0
KCL2 210431Z 10006KT 17/10 A3016 RMK A01 T01690103  RH  065%=      5-min Rain = 0
KCL2 210432Z 10006KT 17/10 A3016 RMK A01 T01690103  RH  065%=      5-min Rain = 0
KCL2 210433Z 10006KT 17/10 A3016 RMK A01 T01690103  RH  065%=      5-min Rain = 0
KCL2 210434Z 10007KT 17/10 A3016 RMK A01 T01690103  RH  065%=      5-min Rain = 0
KCL2 210435Z 10007KT 17/10 A3017 RMK A01 T01700104  RH  065%=      5-min Rain = 0
KCL2 210436Z 10006KT 17/10 A3017 RMK A01 T01700103  RH  065%=      5-min Rain = 0
KCL2 210437Z 09007KT 17/10 A3017 RMK A01 T01690104  RH  065%=      5-min Rain = 0
KCL2 210438Z 10007KT 17/10 A3017 RMK A01 T01690104  RH  065%=      5-min Rain = 0
KCL2 210439Z 09007KT 17/10 A3017 RMK A01 T01680104  RH  066%=      5-min Rain = 0
KCL2 210440Z 09007KT 17/10 A3017 RMK A01 T01680104  RH  066%=      5-min Rain = 0
KCL2 210441Z 09007KT 17/10 A3017 RMK A01 T01680104  RH  066%=      5-min Rain = 0
KCL2 210442Z 09007KT 17/10 A3017 RMK A01 T01680104  RH  066%=      5-min Rain = 0
KCL2 210443Z 09007KT 17/10 A3017 RMK A01 T01680104  RH  066%=      5-min Rain = 0
KCL2 210444Z 09007KT 17/10 A3016 RMK A01 T01680104  RH  066%=      5-min Rain = 0
KCL2 210445Z 09007KT 17/11 A3017 RMK A01 T01680105  RH  066%=      5-min Rain = 0
KCL2 210446Z 09007KT 17/10 A3017 RMK A01 T01670104  RH  066%=      5-min Rain = 0
KCL2 210447Z 09007KT 17/11 A3017 RMK A01 T01670105  RH  067%=      5-min Rain = 0
KCL2 210448Z 09007KT 17/11 A3017 RMK A01 T01670105  RH  067%=      5-min Rain = 0
KCL2 210449Z 09007KT 17/11 A3017 RMK A01 T01660105  RH  067%=      5-min Rain = 0
KCL2 210450Z 09007KT 17/10 A3016 RMK A01 T01660104  RH  067%=      5-min Rain = 0
KCL2 210451Z 10007KT 17/11 A3016 RMK A01 T01660105  RH  067%=      5-min Rain = 0
KCL2 210452Z 10007KT 17/11 A3016 RMK A01 T01660105  RH  067%=      5-min Rain = 0
KCL2 210453Z 10007KT 17/10 A3016 RMK A01 T01650104  RH  067%=      5-min Rain = 0
KCL2 210454Z 10007KT 17/10 A3016 RMK A01 T01650104  RH  067%=      5-min Rain = 0
KCL2 210455Z 10006KT 17/10 A3016 RMK A01 T01650104  RH  067%=      5-min Rain = 0
KCL2 210456Z 09006KT 17/10 A3016 RMK A01 T01660104  RH  067%=      5-min Rain = 0
KCL2 210457Z 10006KT 17/10 A3016 RMK A01 T01660104  RH  067%=      5-min Rain = 0
KCL2 210458Z 10006KT 17/10 A3016 RMK A01 T01660104  RH  067%=      5-min Rain = 0
KCL2 210459Z 10006KT 17/11 A3016 RMK A01 T01660105  RH  067%=      5-min Rain = 0

Page generated in 0.1198 seconds.